Time,TemperatureF,DewpointF,PressureIn,WindDirection,WindDirectionDegrees,WindSpeedMPH,WindSpeedGustMPH,Humidity,HourlyPrecipIn,Conditions,Clouds,dailyrainin,SoftwareType,DateUTC
2013-01-13 00:00:00,73.7,65.1,30.19,South,180,4.9,8.8,74,0.00,,---,0.00,VWS V14.01,2013-01-13 05:00:00,
2013-01-13 00:01:00,73.6,65.0,30.19,SSE,165,3.4,5.3,74,0.00,,---,0.00,VWS V14.01,2013-01-13 05:01:00,
2013-01-13 00:02:00,73.6,64.8,30.19,South,186,6.9,7.9,74,0.00,,---,0.00,VWS V14.01,2013-01-13 05:02:00,
2013-01-13 00:03:00,73.6,64.8,30.19,SSE,166,4.9,8.0,74,0.00,,---,0.00,VWS V14.01,2013-01-13 05:03:00,
2013-01-13 00:04:00,73.7,61.5,30.21,South,179,4.2,10.6,66,0.00,,---,0.00,VWS V14.01,2013-01-13 05:04:00,
2013-01-13 00:05:00,73.8,65.0,30.19,SSE,156,3.6,9.6,74,0.00,,---,0.00,VWS V14.01,2013-01-13 05:05:00,
2013-01-13 00:06:00,73.6,64.8,30.19,SSE,156,3.2,4.2,74,0.00,,---,0.00,VWS V14.01,2013-01-13 05:06:00,
2013-01-13 00:07:00,73.6,64.8,30.20,SSE,167,5.5,5.5,74,0.00,,---,0.00,VWS V14.01,2013-01-13 05:07:00,
2013-01-13 00:08:00,73.5,64.8,30.20,ESE,108,5.1,6.5,74,0.00,,---,0.00,VWS V14.01,2013-01-13 05:08:00,
2013-01-13 00:09:00,73.9,62.0,30.21,SSE,163,4.8,10.6,66,0.00,,---,0.00,VWS V14.01,2013-01-13 05:09:00,
2013-01-13 00:10:00,73.6,64.8,30.19,SSE,149,3.5,3.7,74,0.00,,---,0.00,VWS V14.01,2013-01-13 05:10:00,
2013-01-13 00:11:00,73.6,64.9,30.20,South,169,5.7,8.6,74,0.00,,---,0.00,VWS V14.01,2013-01-13 05:11:00,
2013-01-13 00:13:00,73.5,64.9,30.20,SSE,163,8.0,8.0,74,0.00,,---,0.00,VWS V14.01,2013-01-13 05:13:00,
2013-01-13 00:15:00,73.6,65.0,30.20,South,190,4.8,5.8,74,0.00,,---,0.00,VWS V14.01,2013-01-13 05:15:00,
2013-01-13 00:16:00,73.5,64.9,30.19,South,176,4.0,5.5,74,0.00,,---,0.00,VWS V14.01,2013-01-13 05:16:00,
2013-01-13 00:18:00,73.5,64.9,30.19,SSE,163,6.5,9.3,74,0.00,,---,0.00,VWS V14.01,2013-01-13 05:18:00,
2013-01-13 00:20:00,73.6,64.8,30.19,South,181,6.0,6.5,74,0.00,,---,0.00,VWS V14.01,2013-01-13 05:20:00,
2013-01-13 00:21:00,73.4,64.7,30.19,South,188,7.4,9.9,74,0.00,,---,0.00,VWS V14.01,2013-01-13 05:21:00,
2013-01-13 00:23:00,73.3,64.5,30.19,SSE,150,5.0,8.0,74,0.00,,---,0.00,VWS V14.01,2013-01-13 05:23:00,
2013-01-13 00:26:00,73.4,64.4,30.19,SSW,210,4.4,10.6,73,0.00,,---,0.00,VWS V14.01,2013-01-13 05:26:00,
2013-01-13 00:27:00,73.4,64.4,30.19,SSE,163,4.8,7.5,73,0.00,,---,0.00,VWS V14.01,2013-01-13 05:27:00,
2013-01-13 00:28:00,73.5,64.3,30.19,South,174,6.3,8.0,73,0.00,,---,0.00,VWS V14.01,2013-01-13 05:28:00,
2013-01-13 00:29:00,73.4,64.2,30.19,SSE,167,6.2,7.4,73,0.00,,---,0.00,VWS V14.01,2013-01-13 05:29:00,
2013-01-13 00:31:00,73.4,64.2,30.19,SSE,160,5.2,7.3,73,0.00,,---,0.00,VWS V14.01,2013-01-13 05:31:00,
2013-01-13 00:32:00,73.3,64.0,30.19,SE,135,6.9,8.6,73,0.00,,---,0.00,VWS V14.01,2013-01-13 05:32:00,
2013-01-13 00:33:00,73.4,64.1,30.19,South,174,7.0,7.7,73,0.00,,---,0.00,VWS V14.01,2013-01-13 05:33:00,
2013-01-13 00:34:00,73.3,64.0,30.19,South,183,6.6,7.7,73,0.00,,---,0.00,VWS V14.01,2013-01-13 05:34:00,
2013-01-13 00:36:00,73.4,64.2,30.19,South,174,6.4,8.6,73,0.00,,---,0.00,VWS V14.01,2013-01-13 05:36:00,
2013-01-13 00:37:00,73.5,64.3,30.19,SE,139,3.8,6.6,73,0.00,,---,0.00,VWS V14.01,2013-01-13 05:37:00,
2013-01-13 00:39:00,73.5,64.4,30.19,SSE,162,10.5,10.5,73,0.00,,---,0.00,VWS V14.01,2013-01-13 05:39:00,
2013-01-13 00:41:00,73.5,64.5,30.19,South,174,4.0,6.3,74,0.00,,---,0.00,VWS V14.01,2013-01-13 05:41:00,
2013-01-13 00:42:00,73.7,64.8,30.19,SE,134,4.9,6.8,74,0.00,,---,0.00,VWS V14.01,2013-01-13 05:42:00,
2013-01-13 00:44:00,73.6,64.9,30.19,SSE,149,4.7,6.7,74,0.00,,---,0.00,VWS V14.01,2013-01-13 05:44:00,
2013-01-13 00:46:00,73.6,65.3,30.19,SSW,195,5.8,9.6,75,0.00,,---,0.00,VWS V14.01,2013-01-13 05:46:00,
2013-01-13 00:47:00,73.7,65.4,30.19,South,179,6.5,9.3,75,0.00,,---,0.00,VWS V14.01,2013-01-13 05:47:00,
2013-01-13 00:49:00,73.6,65.3,30.19,SSE,167,6.2,6.2,75,0.00,,---,0.00,VWS V14.01,2013-01-13 05:49:00,
2013-01-13 00:51:00,73.9,65.7,30.19,South,184,6.7,7.6,76,0.00,,---,0.00,VWS V14.01,2013-01-13 05:51:00,
2013-01-13 00:52:00,73.7,65.4,30.19,SSE,166,2.6,8.3,75,0.00,,---,0.00,VWS V14.01,2013-01-13 05:52:00,
2013-01-13 00:54:00,73.7,65.4,30.19,SE,132,9.3,9.6,75,0.00,,---,0.00,VWS V14.01,2013-01-13 05:54:00,
2013-01-13 00:56:00,73.5,65.1,30.19,SSE,165,7.7,9.8,75,0.00,,---,0.00,VWS V14.01,2013-01-13 05:56:00,
2013-01-13 00:57:00,73.7,65.2,30.19,SSE,163,9.4,9.6,75,0.00,,---,0.00,VWS V14.01,2013-01-13 05:57:00,
2013-01-13 00:59:00,73.6,65.1,30.19,SSE,150,8.4,13.1,75,0.00,,---,0.00,VWS V14.01,2013-01-13 05:59:00,
2013-01-13 01:01:00,73.6,65.2,30.19,South,172,6.4,7.0,75,0.00,,---,0.00,VWS V14.01,2013-01-13 06:01:00,
2013-01-13 01:02:00,73.6,65.2,30.19,SE,145,7.0,7.0,75,0.00,,---,0.00,VWS V14.01,2013-01-13 06:02:00,
2013-01-13 01:04:00,73.6,65.2,30.19,South,180,5.9,6.8,75,0.00,,---,0.00,VWS V14.01,2013-01-13 06:04:00,
2013-01-13 01:06:00,73.5,65.1,30.19,SSE,152,7.3,10.4,75,0.00,,---,0.00,VWS V14.01,2013-01-13 06:06:00,
2013-01-13 01:07:00,73.6,65.1,30.19,South,172,5.3,8.2,75,0.00,,---,0.00,VWS V14.01,2013-01-13 06:07:00,
2013-01-13 01:09:00,73.5,65.0,30.19,SE,124,4.0,6.6,75,0.00,,---,0.00,VWS V14.01,2013-01-13 06:09:00,
2013-01-13 01:11:00,73.3,64.7,30.19,SSW,193,8.8,10.9,74,0.00,,---,0.00,VWS V14.01,2013-01-13 06:11:00,
2013-01-13 01:12:00,73.4,64.8,30.19,SSE,150,8.0,8.1,75,0.00,,---,0.00,VWS V14.01,2013-01-13 06:12:00,
2013-01-13 01:14:00,73.5,65.0,30.19,South,180,7.7,7.7,75,0.00,,---,0.00,VWS V14.01,2013-01-13 06:14:00,
2013-01-13 01:17:00,73.6,65.2,30.19,SSE,158,5.9,7.7,75,0.00,,---,0.00,VWS V14.01,2013-01-13 06:17:00,
2013-01-13 01:19:00,73.5,65.2,30.19,SSW,207,7.3,8.5,75,0.00,,---,0.00,VWS V14.01,2013-01-13 06:19:00,
2013-01-13 01:20:00,73.6,65.3,30.19,South,183,6.3,8.5,75,0.00,,---,0.00,VWS V14.01,2013-01-13 06:20:00,
2013-01-13 01:22:00,73.5,65.3,30.19,South,179,5.1,6.0,76,0.00,,---,0.00,VWS V14.01,2013-01-13 06:22:00,
2013-01-13 01:23:00,73.5,65.4,30.19,SE,146,6.5,8.0,76,0.00,,---,0.00,VWS V14.01,2013-01-13 06:23:00,
2013-01-13 01:25:00,73.5,65.6,30.19,SSE,162,3.5,7.7,76,0.00,,---,0.00,VWS V14.01,2013-01-13 06:25:00,
2013-01-13 01:27:00,73.7,66.0,30.19,South,184,6.1,10.4,77,0.00,,---,0.00,VWS V14.01,2013-01-13 06:27:00,
2013-01-13 01:28:00,73.7,66.0,30.19,SSE,167,6.5,10.4,77,0.00,,---,0.00,VWS V14.01,2013-01-13 06:28:00,
2013-01-13 01:30:00,73.6,66.0,30.19,South,176,4.7,9.8,77,0.00,,---,0.00,VWS V14.01,2013-01-13 06:30:00,
2013-01-13 01:32:00,73.5,65.9,30.19,SSE,152,4.4,6.3,77,0.00,,---,0.00,VWS V14.01,2013-01-13 06:32:00,
2013-01-13 01:33:00,73.7,66.2,30.19,South,186,6.0,7.6,77,0.00,,---,0.00,VWS V14.01,2013-01-13 06:33:00,
2013-01-13 01:35:00,73.7,66.2,30.19,SSE,163,5.6,11.4,78,0.00,,---,0.00,VWS V14.01,2013-01-13 06:35:00,
2013-01-13 01:37:00,73.7,65.9,30.19,SE,128,9.7,9.8,76,0.00,,---,0.00,VWS V14.01,2013-01-13 06:37:00,
2013-01-13 01:38:00,73.6,65.6,30.19,South,172,7.0,14.0,76,0.00,,---,0.00,VWS V14.01,2013-01-13 06:38:00,
2013-01-13 01:40:00,73.6,65.6,30.18,South,177,5.1,10.6,76,0.00,,---,0.00,VWS V14.01,2013-01-13 06:40:00,
2013-01-13 01:43:00,73.5,65.5,30.18,South,172,8.8,12.2,76,0.00,,---,0.00,VWS V14.01,2013-01-13 06:43:00,
2013-01-13 01:45:00,73.8,65.9,30.18,SSE,165,6.6,11.3,76,0.00,,---,0.00,VWS V14.01,2013-01-13 06:45:00,
2013-01-13 01:48:00,73.7,65.8,30.19,South,172,9.3,9.3,76,0.00,,---,0.00,VWS V14.01,2013-01-13 06:48:00,
2013-01-13 01:50:00,73.7,65.7,30.19,SSW,200,4.5,5.8,76,0.00,,---,0.00,VWS V14.01,2013-01-13 06:50:00,
2013-01-13 01:53:00,73.8,65.7,30.19,SSE,167,5.5,7.3,76,0.00,,---,0.00,VWS V14.01,2013-01-13 06:53:00,
2013-01-13 01:54:00,73.8,65.7,30.19,SSE,159,9.1,9.1,76,0.00,,---,0.00,VWS V14.01,2013-01-13 06:54:00,
2013-01-13 01:55:00,73.8,65.7,30.18,SSE,152,4.3,4.3,76,0.00,,---,0.00,VWS V14.01,2013-01-13 06:55:00,
2013-01-13 01:58:00,74.0,65.9,30.18,SE,143,8.8,8.8,76,0.00,,---,0.00,VWS V14.01,2013-01-13 06:58:00,
2013-01-13 01:59:00,73.9,65.8,30.18,SSW,193,5.6,6.8,76,0.00,,---,0.00,VWS V14.01,2013-01-13 06:59:00,
2013-01-13 02:00:00,73.9,65.9,30.18,South,181,10.7,10.7,76,0.00,,---,0.00,VWS V14.01,2013-01-13 07:00:00,
2013-01-13 02:03:00,73.8,65.8,30.18,South,174,5.5,8.0,76,0.00,,---,0.00,VWS V14.01,2013-01-13 07:03:00,
2013-01-13 02:04:00,73.7,65.8,30.19,South,183,9.8,9.8,76,0.00,,---,0.00,VWS V14.01,2013-01-13 07:04:00,
2013-01-13 02:05:00,73.9,65.9,30.19,SSE,156,6.2,9.3,76,0.00,,---,0.00,VWS V14.01,2013-01-13 07:05:00,
2013-01-13 02:08:00,73.9,65.8,30.19,South,173,7.6,10.4,76,0.00,,---,0.00,VWS V14.01,2013-01-13 07:08:00,
2013-01-13 02:09:00,73.7,65.5,30.19,SE,136,7.5,7.5,76,0.00,,---,0.00,VWS V14.01,2013-01-13 07:09:00,
2013-01-13 02:10:00,73.8,65.5,30.18,SSE,163,8.5,11.6,75,0.00,,---,0.00,VWS V14.01,2013-01-13 07:10:00,
2013-01-13 02:11:00,73.8,65.5,30.18,South,184,9.7,11.6,75,0.00,,---,0.00,VWS V14.01,2013-01-13 07:11:00,
2013-01-13 02:14:00,73.8,65.7,30.18,SSE,150,5.2,8.0,76,0.00,,---,0.00,VWS V14.01,2013-01-13 07:14:00,
2013-01-13 02:15:00,73.8,65.8,30.18,SSE,156,6.2,7.1,76,0.00,,---,0.00,VWS V14.01,2013-01-13 07:15:00,
2013-01-13 02:16:00,73.8,65.8,30.18,South,190,9.4,10.5,76,0.00,,---,0.00,VWS V14.01,2013-01-13 07:16:00,
2013-01-13 02:19:00,73.8,65.8,30.18,South,181,4.3,5.7,76,0.00,,---,0.00,VWS V14.01,2013-01-13 07:19:00,
2013-01-13 02:20:00,73.8,65.9,30.18,ESE,122,7.0,9.2,76,0.00,,---,0.00,VWS V14.01,2013-01-13 07:20:00,
2013-01-13 02:21:00,74.0,66.1,30.18,SSE,167,7.5,9.2,76,0.00,,---,0.00,VWS V14.01,2013-01-13 07:21:00,
2013-01-13 02:24:00,73.8,65.9,30.18,SSE,162,8.8,13.9,76,0.00,,---,0.00,VWS V14.01,2013-01-13 07:24:00,
2013-01-13 02:25:00,73.8,65.9,30.18,SE,146,6.4,9.8,76,0.00,,---,0.00,VWS V14.01,2013-01-13 07:25:00,
2013-01-13 02:26:00,73.9,66.0,30.18,ESE,122,7.8,9.8,76,0.00,,---,0.00,VWS V14.01,2013-01-13 07:26:00,
2013-01-13 02:29:00,74.0,66.0,30.18,South,190,9.0,10.3,76,0.00,,---,0.00,VWS V14.01,2013-01-13 07:29:00,
2013-01-13 02:30:00,73.7,65.7,30.18,South,172,7.5,7.5,76,0.00,,---,0.00,VWS V14.01,2013-01-13 07:30:00,
2013-01-13 02:31:00,73.7,65.7,30.18,South,183,5.8,8.0,76,0.00,,---,0.00,VWS V14.01,2013-01-13 07:31:00,
2013-01-13 02:34:00,73.9,65.8,30.18,South,181,11.1,11.1,76,0.00,,---,0.00,VWS V14.01,2013-01-13 07:34:00,
2013-01-13 02:35:00,73.7,65.6,30.18,South,169,5.7,7.8,76,0.00,,---,0.00,VWS V14.01,2013-01-13 07:35:00,
2013-01-13 02:36:00,73.8,65.7,30.18,SSE,162,6.8,7.8,76,0.00,,---,0.00,VWS V14.01,2013-01-13 07:36:00,
2013-01-13 02:39:00,73.9,65.8,30.18,SSE,152,7.1,14.5,76,0.00,,---,0.00,VWS V14.01,2013-01-13 07:39:00,
2013-01-13 02:40:00,73.7,65.6,30.18,ESE,104,7.7,10.1,76,0.00,,---,0.00,VWS V14.01,2013-01-13 07:40:00,
2013-01-13 02:41:00,73.8,65.7,30.18,South,177,7.7,8.3,76,0.00,,---,0.00,VWS V14.01,2013-01-13 07:41:00,
2013-01-13 02:44:00,73.8,65.9,30.18,South,176,7.0,12.6,76,0.00,,---,0.00,VWS V14.01,2013-01-13 07:44:00,
2013-01-13 02:45:00,73.7,65.8,30.18,South,174,7.3,12.0,76,0.00,,---,0.00,VWS V14.01,2013-01-13 07:45:00,
2013-01-13 02:46:00,73.9,66.0,30.18,SSE,165,5.0,9.8,76,0.00,,---,0.00,VWS V14.01,2013-01-13 07:46:00,
2013-01-13 02:49:00,73.8,65.9,30.18,SSE,166,10.4,14.8,76,0.00,,---,0.00,VWS V14.01,2013-01-13 07:49:00,
2013-01-13 02:50:00,73.7,65.8,30.18,South,188,13.7,13.8,76,0.00,,---,0.00,VWS V14.01,2013-01-13 07:50:00,
2013-01-13 02:51:00,73.8,65.9,30.18,SSE,159,8.0,11.6,76,0.00,,---,0.00,VWS V14.01,2013-01-13 07:51:00,
2013-01-13 02:54:00,73.8,66.2,30.18,South,176,9.8,10.9,77,0.00,,---,0.00,VWS V14.01,2013-01-13 07:54:00,
2013-01-13 02:55:00,74.0,66.4,30.18,SSE,159,5.3,13.9,77,0.00,,---,0.00,VWS V14.01,2013-01-13 07:55:00,
2013-01-13 02:56:00,73.7,66.1,30.18,SSE,167,7.1,16.7,77,0.00,,---,0.00,VWS V14.01,2013-01-13 07:56:00,
2013-01-13 02:59:00,73.8,66.5,30.17,SSE,165,5.7,12.2,78,0.00,,---,0.00,VWS V14.01,2013-01-13 07:59:00,
2013-01-13 03:00:00,73.8,66.6,30.17,South,172,6.5,7.7,78,0.00,,---,0.00,VWS V14.01,2013-01-13 08:00:00,
2013-01-13 03:01:00,73.6,66.5,30.17,SSE,166,9.8,11.4,78,0.00,,---,0.00,VWS V14.01,2013-01-13 08:01:00,
2013-01-13 03:02:00,73.7,66.6,30.17,SSW,193,6.6,11.8,78,0.00,,---,0.00,VWS V14.01,2013-01-13 08:02:00,
2013-01-13 03:04:00,73.6,66.6,30.17,South,172,7.1,7.1,79,0.00,,---,0.00,VWS V14.01,2013-01-13 08:04:00,
2013-01-13 03:05:00,73.5,66.5,30.18,South,169,7.0,8.6,79,0.00,,---,0.00,VWS V14.01,2013-01-13 08:05:00,
2013-01-13 03:06:00,73.6,66.6,30.18,SE,132,6.1,9.7,79,0.00,,---,0.00,VWS V14.01,2013-01-13 08:06:00,
2013-01-13 03:07:00,73.5,66.5,30.17,South,177,6.2,10.5,79,0.00,,---,0.00,VWS V14.01,2013-01-13 08:07:00,
2013-01-13 03:09:00,73.4,66.4,30.18,SSE,158,4.2,5.4,79,0.00,,---,0.00,VWS V14.01,2013-01-13 08:09:00,
2013-01-13 03:11:00,73.5,66.4,30.18,South,181,10.4,11.7,78,0.00,,---,0.00,VWS V14.01,2013-01-13 08:11:00,
2013-01-13 03:12:00,73.4,66.2,30.18,SE,141,4.7,7.4,78,0.00,,---,0.00,VWS V14.01,2013-01-13 08:12:00,
2013-01-13 03:14:00,73.4,65.9,30.17,South,174,9.1,9.1,77,0.00,,---,0.00,VWS V14.01,2013-01-13 08:14:00,
2013-01-13 03:16:00,73.4,65.7,30.17,South,187,8.3,9.7,77,0.00,,---,0.00,VWS V14.01,2013-01-13 08:16:00,
2013-01-13 03:17:00,73.4,65.4,30.17,SSW,208,9.6,11.7,76,0.00,,---,0.00,VWS V14.01,2013-01-13 08:17:00,
2013-01-13 03:19:00,73.5,64.9,30.17,SW,229,7.3,11.9,74,0.00,,---,0.00,VWS V14.01,2013-01-13 08:19:00,
2013-01-13 03:21:00,73.8,65.0,30.17,SSW,193,8.9,10.6,74,0.00,,---,0.00,VWS V14.01,2013-01-13 08:21:00,
2013-01-13 03:22:00,73.8,64.8,30.17,SSW,193,11.3,13.6,74,0.00,,---,0.00,VWS V14.01,2013-01-13 08:22:00,
2013-01-13 03:25:00,73.9,64.8,30.17,South,174,4.7,12.6,73,0.00,,---,0.00,VWS V14.01,2013-01-13 08:25:00,
2013-01-13 03:26:00,73.9,64.8,30.17,SSW,205,6.3,8.7,73,0.00,,---,0.00,VWS V14.01,2013-01-13 08:26:00,
2013-01-13 03:27:00,73.9,64.7,30.17,South,172,8.2,9.4,73,0.00,,---,0.00,VWS V14.01,2013-01-13 08:27:00,
2013-01-13 03:30:00,74.0,64.7,30.17,South,191,8.6,12.3,73,0.00,,---,0.00,VWS V14.01,2013-01-13 08:30:00,
2013-01-13 03:31:00,73.9,64.6,30.17,SSW,204,7.9,10.7,73,0.00,,---,0.00,VWS V14.01,2013-01-13 08:31:00,
2013-01-13 03:32:00,74.0,64.7,30.17,SSW,193,7.5,9.8,73,0.00,,---,0.00,VWS V14.01,2013-01-13 08:32:00,
2013-01-13 03:35:00,74.1,64.8,30.17,SSW,193,8.4,9.8,73,0.00,,---,0.00,VWS V14.01,2013-01-13 08:35:00,
2013-01-13 03:36:00,73.9,64.4,30.17,SSW,205,4.3,5.2,72,0.00,,---,0.00,VWS V14.01,2013-01-13 08:36:00,
2013-01-13 03:37:00,74.0,64.6,30.17,South,176,10.5,13.8,72,0.00,,---,0.00,VWS V14.01,2013-01-13 08:37:00,
2013-01-13 03:40:00,74.0,64.4,30.17,SSW,193,8.8,10.4,72,0.00,,---,0.00,VWS V14.01,2013-01-13 08:40:00,
2013-01-13 03:41:00,74.1,64.6,30.17,South,186,7.0,9.4,72,0.00,,---,0.00,VWS V14.01,2013-01-13 08:41:00,
2013-01-13 03:42:00,74.1,64.6,30.17,South,174,9.0,10.9,72,0.00,,---,0.00,VWS V14.01,2013-01-13 08:42:00,
2013-01-13 03:45:00,73.9,64.5,30.17,SSE,153,5.8,6.7,72,0.00,,---,0.00,VWS V14.01,2013-01-13 08:45:00,
2013-01-13 03:46:00,74.0,64.7,30.16,SSW,197,8.7,8.7,73,0.00,,---,0.00,VWS V14.01,2013-01-13 08:46:00,
2013-01-13 03:47:00,74.0,64.7,30.16,SSW,193,6.6,10.1,73,0.00,,---,0.00,VWS V14.01,2013-01-13 08:47:00,
2013-01-13 03:50:00,74.0,64.7,30.16,South,169,4.5,6.3,73,0.00,,---,0.00,VWS V14.01,2013-01-13 08:50:00,
2013-01-13 03:51:00,74.0,64.7,30.17,South,186,5.1,5.4,73,0.00,,---,0.00,VWS V14.01,2013-01-13 08:51:00,
2013-01-13 03:52:00,74.0,64.7,30.17,South,177,4.8,7.1,73,0.00,,---,0.00,VWS V14.01,2013-01-13 08:52:00,
2013-01-13 03:55:00,73.8,64.4,30.17,South,177,8.6,8.6,72,0.00,,---,0.00,VWS V14.01,2013-01-13 08:55:00,
2013-01-13 03:56:00,73.7,64.3,30.17,South,190,5.5,9.4,72,0.00,,---,0.00,VWS V14.01,2013-01-13 08:56:00,
2013-01-13 03:57:00,73.9,64.4,30.17,South,190,7.6,11.3,72,0.00,,---,0.00,VWS V14.01,2013-01-13 08:57:00,
2013-01-13 04:00:00,73.7,64.0,30.17,South,170,12.6,12.6,72,0.00,,---,0.00,VWS V14.01,2013-01-13 09:00:00,
2013-01-13 04:01:00,73.8,64.2,30.16,SSE,163,5.0,6.2,72,0.00,,---,0.00,VWS V14.01,2013-01-13 09:01:00,
2013-01-13 04:02:00,73.6,64.1,30.16,South,177,6.3,9.8,72,0.00,,---,0.00,VWS V14.01,2013-01-13 09:02:00,
2013-01-13 04:05:00,73.8,64.3,30.16,SSE,150,4.8,5.6,72,0.00,,---,0.00,VWS V14.01,2013-01-13 09:05:00,
2013-01-13 04:06:00,73.8,64.3,30.16,South,181,11.1,11.1,72,0.00,,---,0.00,VWS V14.01,2013-01-13 09:06:00,
2013-01-13 04:07:00,73.8,64.2,30.16,South,177,7.4,11.1,72,0.00,,---,0.00,VWS V14.01,2013-01-13 09:07:00,
2013-01-13 04:08:00,73.7,64.0,30.17,South,181,5.7,11.9,72,0.00,,---,0.00,VWS V14.01,2013-01-13 09:08:00,
2013-01-13 04:10:00,73.8,64.0,30.17,ESE,104,6.1,10.1,72,0.00,,---,0.00,VWS V14.01,2013-01-13 09:10:00,
2013-01-13 04:12:00,73.8,64.1,30.17,SSW,193,8.6,13.8,72,0.00,,---,0.00,VWS V14.01,2013-01-13 09:12:00,
2013-01-13 04:13:00,73.9,64.3,30.17,South,190,6.5,8.7,72,0.00,,---,0.00,VWS V14.01,2013-01-13 09:13:00,
2013-01-13 04:15:00,74.1,64.6,30.17,SSW,193,9.2,10.5,72,0.00,,---,0.00,VWS V14.01,2013-01-13 09:15:00,
2013-01-13 04:17:00,73.8,64.4,30.17,South,176,6.2,8.3,72,0.00,,---,0.00,VWS V14.01,2013-01-13 09:17:00,
2013-01-13 04:18:00,73.8,64.1,30.17,SSE,152,4.2,13.2,72,0.00,,---,0.00,VWS V14.01,2013-01-13 09:18:00,
2013-01-13 04:20:00,73.9,63.8,30.17,South,187,7.6,8.5,71,0.00,,---,0.00,VWS V14.01,2013-01-13 09:20:00,
2013-01-13 04:22:00,73.8,63.7,30.17,South,181,5.5,8.9,71,0.00,,---,0.00,VWS V14.01,2013-01-13 09:22:00,
2013-01-13 04:23:00,73.8,63.8,30.18,South,174,5.4,5.7,71,0.00,,---,0.00,VWS V14.01,2013-01-13 09:23:00,
2013-01-13 04:25:00,73.7,63.7,30.18,SSW,205,7.8,7.8,71,0.00,,---,0.00,VWS V14.01,2013-01-13 09:25:00,
2013-01-13 04:27:00,73.7,63.8,30.18,South,188,7.0,7.0,71,0.00,,---,0.00,VWS V14.01,2013-01-13 09:27:00,
2013-01-13 04:28:00,73.7,63.9,30.18,SSE,166,5.3,6.9,72,0.00,,---,0.00,VWS V14.01,2013-01-13 09:28:00,
2013-01-13 04:31:00,73.8,64.0,30.17,South,179,9.5,9.5,71,0.00,,---,0.00,VWS V14.01,2013-01-13 09:31:00,
2013-01-13 04:32:00,73.9,64.0,30.17,SSE,160,6.6,8.6,71,0.00,,---,0.00,VWS V14.01,2013-01-13 09:32:00,
2013-01-13 04:33:00,73.8,63.9,30.17,SSW,195,7.4,10.3,71,0.00,,---,0.00,VWS V14.01,2013-01-13 09:33:00,
2013-01-13 04:36:00,73.9,63.8,30.17,South,177,9.6,10.7,71,0.00,,---,0.00,VWS V14.01,2013-01-13 09:36:00,
2013-01-13 04:37:00,73.6,63.4,30.18,WSW,239,2.0,4.2,70,0.00,,---,0.00,VWS V14.01,2013-01-13 09:37:00,
2013-01-13 04:38:00,73.7,63.5,30.18,South,181,7.9,8.6,70,0.00,,---,0.00,VWS V14.01,2013-01-13 09:38:00,
2013-01-13 04:41:00,73.8,63.6,30.18,South,180,7.4,7.8,70,0.00,,---,0.00,VWS V14.01,2013-01-13 09:41:00,
2013-01-13 04:42:00,73.7,63.6,30.18,South,191,5.1,8.1,71,0.00,,---,0.00,VWS V14.01,2013-01-13 09:42:00,
2013-01-13 04:43:00,73.8,63.6,30.18,SSW,194,7.0,8.1,70,0.00,,---,0.00,VWS V14.01,2013-01-13 09:43:00,
2013-01-13 04:46:00,73.8,63.7,30.17,SSW,197,6.7,8.6,71,0.00,,---,0.00,VWS V14.01,2013-01-13 09:46:00,
2013-01-13 04:47:00,73.7,63.6,30.17,SSE,167,5.4,6.8,71,0.00,,---,0.00,VWS V14.01,2013-01-13 09:47:00,
2013-01-13 04:48:00,73.7,63.6,30.17,SSE,159,6.2,8.9,71,0.00,,---,0.00,VWS V14.01,2013-01-13 09:48:00,
2013-01-13 04:51:00,73.7,63.4,30.17,SSE,160,5.5,5.8,70,0.00,,---,0.00,VWS V14.01,2013-01-13 09:51:00,
2013-01-13 04:52:00,73.6,63.3,30.18,SSW,195,8.6,11.8,70,0.00,,---,0.00,VWS V14.01,2013-01-13 09:52:00,
2013-01-13 04:53:00,73.5,63.1,30.18,South,176,8.6,11.8,70,0.00,,---,0.00,VWS V14.01,2013-01-13 09:53:00,
2013-01-13 04:56:00,73.6,63.2,30.18,South,179,6.1,10.4,70,0.00,,---,0.00,VWS V14.01,2013-01-13 09:56:00,
2013-01-13 04:57:00,73.8,63.3,30.18,SSW,193,5.2,6.4,70,0.00,,---,0.00,VWS V14.01,2013-01-13 09:57:00,
2013-01-13 04:58:00,73.6,63.2,30.18,SSE,162,6.4,9.1,70,0.00,,---,0.00,VWS V14.01,2013-01-13 09:58:00,
2013-01-13 05:01:00,73.9,63.3,30.18,South,176,3.3,5.1,70,0.00,,---,0.00,VWS V14.01,2013-01-13 10:01:00,
2013-01-13 05:02:00,73.6,63.0,30.18,South,177,5.5,6.2,70,0.00,,---,0.00,VWS V14.01,2013-01-13 10:02:00,
2013-01-13 05:03:00,73.9,63.3,30.18,South,170,8.0,9.6,70,0.00,,---,0.00,VWS V14.01,2013-01-13 10:03:00,
2013-01-13 05:06:00,73.7,63.2,30.17,SSW,195,5.2,5.8,70,0.00,,---,0.00,VWS V14.01,2013-01-13 10:06:00,
2013-01-13 05:07:00,73.7,63.3,30.18,South,172,5.0,11.0,70,0.00,,---,0.00,VWS V14.01,2013-01-13 10:07:00,
2013-01-13 05:08:00,73.7,63.3,30.18,South,183,5.4,11.0,70,0.00,,---,0.00,VWS V14.01,2013-01-13 10:08:00,
2013-01-13 05:09:00,73.7,63.4,30.18,South,176,4.7,7.8,70,0.00,,---,0.00,VWS V14.01,2013-01-13 10:09:00,
2013-01-13 05:11:00,73.8,63.4,30.18,SSE,163,5.7,8.5,70,0.00,,---,0.00,VWS V14.01,2013-01-13 10:11:00,
2013-01-13 05:13:00,73.7,63.2,30.18,SSW,201,7.8,7.8,70,0.00,,---,0.00,VWS V14.01,2013-01-13 10:13:00,
2013-01-13 05:14:00,73.8,63.3,30.18,South,186,4.6,8.1,70,0.00,,---,0.00,VWS V14.01,2013-01-13 10:14:00,
2013-01-13 05:17:00,73.7,63.2,30.18,South,186,4.3,6.8,70,0.00,,---,0.00,VWS V14.01,2013-01-13 10:17:00,
2013-01-13 05:18:00,73.6,63.0,30.18,South,169,4.3,11.2,69,0.00,,---,0.00,VWS V14.01,2013-01-13 10:18:00,
2013-01-13 05:19:00,73.6,63.1,30.18,SSW,195,7.6,8.5,70,0.00,,---,0.00,VWS V14.01,2013-01-13 10:19:00,
2013-01-13 05:22:00,73.6,63.0,30.18,SSE,162,5.2,7.6,70,0.00,,---,0.00,VWS V14.01,2013-01-13 10:22:00,
2013-01-13 05:23:00,73.5,62.9,30.18,SW,215,4.3,4.8,70,0.00,,---,0.00,VWS V14.01,2013-01-13 10:23:00,
2013-01-13 05:24:00,73.6,63.0,30.18,South,183,4.0,6.0,70,0.00,,---,0.00,VWS V14.01,2013-01-13 10:24:00,
2013-01-13 05:27:00,73.3,62.8,30.18,South,190,9.3,11.8,70,0.00,,---,0.00,VWS V14.01,2013-01-13 10:27:00,
2013-01-13 05:28:00,73.4,63.0,30.18,South,174,8.9,8.9,70,0.00,,---,0.00,VWS V14.01,2013-01-13 10:28:00,
2013-01-13 05:29:00,73.4,62.9,30.18,South,173,6.0,8.9,70,0.00,,---,0.00,VWS V14.01,2013-01-13 10:29:00,
2013-01-13 05:32:00,73.3,62.7,30.18,South,181,2.2,3.5,70,0.00,,---,0.00,VWS V14.01,2013-01-13 10:32:00,
2013-01-13 05:33:00,73.4,63.0,30.18,South,176,3.9,5.9,70,0.00,,---,0.00,VWS V14.01,2013-01-13 10:33:00,
2013-01-13 05:34:00,73.3,62.8,30.18,SSW,193,9.9,9.9,70,0.00,,---,0.00,VWS V14.01,2013-01-13 10:34:00,
2013-01-13 05:37:00,73.3,63.1,30.18,South,187,4.0,4.0,70,0.00,,---,0.00,VWS V14.01,2013-01-13 10:37:00,
2013-01-13 05:38:00,73.3,63.1,30.18,South,170,7.1,7.8,70,0.00,,---,0.00,VWS V14.01,2013-01-13 10:38:00,
2013-01-13 05:39:00,73.5,63.4,30.18,South,191,6.7,6.7,71,0.00,,---,0.00,VWS V14.01,2013-01-13 10:39:00,
2013-01-13 05:42:00,73.2,63.1,30.18,South,187,8.1,8.1,71,0.00,,---,0.00,VWS V14.01,2013-01-13 10:42:00,
2013-01-13 05:43:00,73.3,63.2,30.18,SSW,211,4.7,8.6,71,0.00,,---,0.00,VWS V14.01,2013-01-13 10:43:00,
2013-01-13 05:44:00,73.3,63.2,30.18,South,174,5.7,8.6,71,0.00,,---,0.00,VWS V14.01,2013-01-13 10:44:00,
2013-01-13 05:47:00,73.3,63.3,30.18,South,184,4.3,6.2,71,0.00,,---,0.00,VWS V14.01,2013-01-13 10:47:00,
2013-01-13 05:49:00,73.2,63.2,30.18,SSW,198,5.3,8.1,71,0.00,,---,0.00,VWS V14.01,2013-01-13 10:49:00,
2013-01-13 05:52:00,73.2,63.2,30.18,South,191,7.3,7.3,71,0.00,,---,0.00,VWS V14.01,2013-01-13 10:52:00,
2013-01-13 05:54:00,73.2,63.2,30.18,SSE,167,5.3,7.1,71,0.00,,---,0.00,VWS V14.01,2013-01-13 10:54:00,
2013-01-13 05:57:00,73.2,63.3,30.18,SSE,167,6.8,7.3,71,0.00,,---,0.00,VWS V14.01,2013-01-13 10:57:00,
2013-01-13 05:59:00,73.4,63.5,30.18,South,177,6.0,7.4,71,0.00,,---,0.00,VWS V14.01,2013-01-13 10:59:00,
2013-01-13 06:02:00,73.1,63.2,30.18,SSW,195,5.3,5.3,71,0.00,,---,0.00,VWS V14.01,2013-01-13 11:02:00,
2013-01-13 06:04:00,73.4,63.4,30.18,SSW,200,6.6,7.3,71,0.00,,---,0.00,VWS V14.01,2013-01-13 11:04:00,
2013-01-13 06:07:00,73.2,63.2,30.18,SSW,200,5.2,9.0,71,0.00,,---,0.00,VWS V14.01,2013-01-13 11:07:00,
2013-01-13 06:09:00,73.0,63.1,30.18,South,184,8.3,9.3,71,0.00,,---,0.00,VWS V14.01,2013-01-13 11:09:00,
2013-01-13 06:10:00,73.3,63.4,30.18,South,188,4.7,8.3,71,0.00,,---,0.00,VWS V14.01,2013-01-13 11:10:00,
2013-01-13 06:13:00,73.1,63.3,30.18,SSW,207,6.4,7.3,71,0.00,,---,0.00,VWS V14.01,2013-01-13 11:13:00,
2013-01-13 06:14:00,73.2,63.2,30.18,SSW,202,7.4,7.5,71,0.00,,---,0.00,VWS V14.01,2013-01-13 11:14:00,
2013-01-13 06:15:00,73.3,63.3,30.18,SSW,195,6.8,8.5,71,0.00,,---,0.00,VWS V14.01,2013-01-13 11:15:00,
2013-01-13 06:18:00,73.2,63.0,30.18,SSW,197,4.0,6.6,70,0.00,,---,0.00,VWS V14.01,2013-01-13 11:18:00,
2013-01-13 06:19:00,73.3,63.1,30.18,SSW,195,4.3,4.7,70,0.00,,---,0.00,VWS V14.01,2013-01-13 11:19:00,
2013-01-13 06:20:00,73.2,63.0,30.18,South,183,6.8,6.8,70,0.00,,---,0.00,VWS V14.01,2013-01-13 11:20:00,
2013-01-13 06:23:00,73.1,62.7,30.18,South,179,9.3,10.2,70,0.00,,---,0.00,VWS V14.01,2013-01-13 11:23:00,
2013-01-13 06:24:00,73.1,62.7,30.18,South,186,4.4,4.6,70,0.00,,---,0.00,VWS V14.01,2013-01-13 11:24:00,
2013-01-13 06:25:00,73.2,62.8,30.18,SSW,202,6.0,7.2,70,0.00,,---,0.00,VWS V14.01,2013-01-13 11:25:00,
2013-01-13 06:28:00,73.0,62.7,30.17,SSE,148,4.5,7.2,70,0.00,,---,0.00,VWS V14.01,2013-01-13 11:28:00,
2013-01-13 06:29:00,73.2,63.0,30.17,South,188,2.9,3.1,70,0.00,,---,0.00,VWS V14.01,2013-01-13 11:29:00,
2013-01-13 06:30:00,73.3,63.1,30.17,South,177,2.2,5.0,70,0.00,,---,0.00,VWS V14.01,2013-01-13 11:30:00,
2013-01-13 06:33:00,73.3,63.3,30.17,South,173,5.0,8.0,71,0.00,,---,0.00,VWS V14.01,2013-01-13 11:33:00,
2013-01-13 06:34:00,73.0,63.0,30.17,South,190,4.4,5.3,71,0.00,,---,0.00,VWS V14.01,2013-01-13 11:34:00,
2013-01-13 06:35:00,73.1,63.2,30.18,SSW,193,4.1,6.2,71,0.00,,---,0.00,VWS V14.01,2013-01-13 11:35:00,
2013-01-13 06:38:00,73.0,63.1,30.18,South,190,3.4,4.5,71,0.00,,---,0.00,VWS V14.01,2013-01-13 11:38:00,
2013-01-13 06:39:00,73.1,63.2,30.18,SSW,211,2.8,4.1,71,0.00,,---,0.00,VWS V14.01,2013-01-13 11:39:00,
2013-01-13 06:40:00,73.1,63.2,30.18,South,188,5.2,8.0,71,0.00,,---,0.00,VWS V14.01,2013-01-13 11:40:00,
2013-01-13 06:43:00,73.0,62.9,30.18,SSW,193,5.9,8.6,71,0.00,,---,0.00,VWS V14.01,2013-01-13 11:43:00,
2013-01-13 06:44:00,73.0,62.9,30.18,SSW,194,3.1,5.3,71,0.00,,---,0.00,VWS V14.01,2013-01-13 11:44:00,
2013-01-13 06:45:00,73.0,62.9,30.17,East,97,5.7,6.3,71,0.00,,---,0.00,VWS V14.01,2013-01-13 11:45:00,
2013-01-13 06:48:00,73.1,63.2,30.18,SSW,194,6.3,8.6,71,0.00,,---,0.00,VWS V14.01,2013-01-13 11:48:00,
2013-01-13 06:49:00,73.1,63.2,30.18,South,183,4.2,7.0,71,0.00,,---,0.00,VWS V14.01,2013-01-13 11:49:00,
2013-01-13 06:50:00,73.1,63.2,30.18,SSW,200,6.5,9.4,71,0.00,,---,0.00,VWS V14.01,2013-01-13 11:50:00,
2013-01-13 06:53:00,73.1,63.0,30.18,SSW,194,8.5,8.5,71,0.00,,---,0.00,VWS V14.01,2013-01-13 11:53:00,
2013-01-13 06:54:00,73.1,63.0,30.18,South,187,6.0,13.0,71,0.00,,---,0.00,VWS V14.01,2013-01-13 11:54:00,
2013-01-13 06:55:00,73.1,63.0,30.18,SSW,200,8.8,8.8,70,0.00,,---,0.00,VWS V14.01,2013-01-13 11:55:00,
2013-01-13 06:58:00,73.3,63.1,30.18,SSW,197,6.2,8.0,70,0.00,,---,0.00,VWS V14.01,2013-01-13 11:58:00,
2013-01-13 07:00:00,73.3,63.2,30.18,SSE,166,5.2,6.8,71,0.00,,---,0.00,VWS V14.01,2013-01-13 12:00:00,
2013-01-13 07:01:00,73.2,63.1,30.18,SSE,167,5.4,6.4,71,0.00,,---,0.00,VWS V14.01,2013-01-13 12:01:00,
2013-01-13 07:03:00,73.1,63.1,30.18,South,179,4.8,10.2,71,0.00,,---,0.00,VWS V14.01,2013-01-13 12:03:00,
2013-01-13 07:05:00,73.2,63.3,30.18,South,179,8.0,8.6,71,0.00,,---,0.00,VWS V14.01,2013-01-13 12:05:00,
2013-01-13 07:06:00,73.2,63.4,30.18,South,188,5.6,8.2,71,0.00,,---,0.00,VWS V14.01,2013-01-13 12:06:00,
2013-01-13 07:08:00,73.2,63.5,30.18,South,190,9.1,9.1,72,0.00,,---,0.00,VWS V14.01,2013-01-13 12:08:00,
2013-01-13 07:10:00,73.2,63.4,30.18,SSW,200,3.9,4.8,71,0.00,,---,0.00,VWS V14.01,2013-01-13 12:10:00,
2013-01-13 07:11:00,73.3,63.3,30.18,South,187,5.8,9.2,71,0.00,,---,0.00,VWS V14.01,2013-01-13 12:11:00,
2013-01-13 07:13:00,73.3,63.2,30.18,SSW,201,4.8,9.8,71,0.00,,---,0.00,VWS V14.01,2013-01-13 12:13:00,
2013-01-13 07:15:00,73.1,63.2,30.18,SSW,194,5.3,5.8,71,0.00,,---,0.00,VWS V14.01,2013-01-13 12:15:00,
2013-01-13 07:16:00,73.2,63.3,30.18,South,169,8.0,9.3,71,0.00,,---,0.00,VWS V14.01,2013-01-13 12:16:00,
2013-01-13 07:18:00,73.3,63.6,30.18,South,169,4.0,5.3,72,0.00,,---,0.00,VWS V14.01,2013-01-13 12:18:00,
2013-01-13 07:20:00,73.2,63.6,30.18,South,172,5.2,6.8,72,0.00,,---,0.00,VWS V14.01,2013-01-13 12:20:00,
2013-01-13 07:21:00,73.3,63.7,30.18,South,191,3.7,6.8,72,0.00,,---,0.00,VWS V14.01,2013-01-13 12:21:00,
2013-01-13 07:23:00,73.1,63.8,30.18,SSW,193,5.2,9.5,73,0.00,,---,0.00,VWS V14.01,2013-01-13 12:23:00,
2013-01-13 07:25:00,73.2,64.0,30.18,South,176,3.4,8.5,73,0.00,,---,0.00,VWS V14.01,2013-01-13 12:25:00,
2013-01-13 07:26:00,73.3,64.0,30.18,SE,146,3.5,8.5,73,0.00,,---,0.00,VWS V14.01,2013-01-13 12:26:00,
2013-01-13 07:28:00,73.2,63.8,30.18,SSW,194,9.4,9.4,72,0.00,,---,0.00,VWS V14.01,2013-01-13 12:28:00,
2013-01-13 07:30:00,73.1,63.7,30.18,South,187,9.4,9.4,72,0.00,,---,0.00,VWS V14.01,2013-01-13 12:30:00,
2013-01-13 07:31:00,73.1,63.7,30.18,South,188,11.2,11.2,72,0.00,,---,0.00,VWS V14.01,2013-01-13 12:31:00,
2013-01-13 07:33:00,73.4,64.0,30.18,SSE,167,9.3,10.9,72,0.00,,---,0.00,VWS V14.01,2013-01-13 12:33:00,
2013-01-13 07:36:00,73.3,64.0,30.18,SE,139,6.6,9.3,73,0.00,,---,0.00,VWS V14.01,2013-01-13 12:36:00,
2013-01-13 07:39:00,73.5,64.2,30.18,South,183,6.6,9.4,73,0.00,,---,0.00,VWS V14.01,2013-01-13 12:39:00,
2013-01-13 07:41:00,73.5,64.2,30.18,South,183,5.1,9.7,73,0.00,,---,0.00,VWS V14.01,2013-01-13 12:41:00,
2013-01-13 07:44:00,73.5,64.1,30.18,SSW,198,7.3,12.3,72,0.00,,---,0.00,VWS V14.01,2013-01-13 12:44:00,
2013-01-13 07:46:00,73.6,64.3,30.18,South,181,6.8,9.5,73,0.00,,---,0.00,VWS V14.01,2013-01-13 12:46:00,
2013-01-13 07:49:00,73.6,64.1,30.18,South,172,6.1,11.6,72,0.00,,---,0.00,VWS V14.01,2013-01-13 12:49:00,
2013-01-13 07:51:00,73.6,63.9,30.18,South,177,7.1,12.6,72,0.00,,---,0.00,VWS V14.01,2013-01-13 12:51:00,
2013-01-13 07:52:00,73.7,64.0,30.18,SSW,208,7.6,9.8,72,0.00,,---,0.00,VWS V14.01,2013-01-13 12:52:00,
2013-01-13 07:54:00,73.8,64.1,30.18,South,184,5.8,11.4,72,0.00,,---,0.00,VWS V14.01,2013-01-13 12:54:00,
2013-01-13 07:56:00,74.2,64.6,30.18,South,181,6.9,9.3,72,0.00,,---,0.00,VWS V14.01,2013-01-13 12:56:00,
2013-01-13 07:57:00,74.2,64.5,30.18,South,176,8.1,9.9,72,0.00,,---,0.00,VWS V14.01,2013-01-13 12:57:00,
2013-01-13 07:59:00,74.1,64.4,30.18,South,190,7.1,7.1,72,0.00,,---,0.00,VWS V14.01,2013-01-13 12:59:00,
2013-01-13 08:01:00,74.2,64.5,30.18,South,174,5.5,10.0,72,0.00,,---,0.00,VWS V14.01,2013-01-13 13:01:00,
2013-01-13 08:02:00,74.2,64.4,30.18,South,191,6.0,10.0,72,0.00,,---,0.00,VWS V14.01,2013-01-13 13:02:00,
2013-01-13 08:04:00,74.2,64.4,30.18,South,191,6.2,6.9,72,0.00,,---,0.00,VWS V14.01,2013-01-13 13:04:00,
2013-01-13 08:07:00,74.5,64.7,30.19,South,169,5.5,9.7,71,0.00,,---,0.00,VWS V14.01,2013-01-13 13:07:00,
2013-01-13 08:10:00,74.6,64.5,30.19,SSW,201,5.8,10.6,71,0.00,,---,0.00,VWS V14.01,2013-01-13 13:10:00,
2013-01-13 08:12:00,74.6,64.4,30.19,SSW,194,7.0,8.9,70,0.00,,---,0.00,VWS V14.01,2013-01-13 13:12:00,
2013-01-13 08:15:00,74.8,64.5,30.19,South,188,3.9,12.0,70,0.00,,---,0.00,VWS V14.01,2013-01-13 13:15:00,
2013-01-13 08:17:00,74.8,64.4,30.18,South,179,8.2,8.6,70,0.00,,---,0.00,VWS V14.01,2013-01-13 13:17:00,
2013-01-13 08:20:00,74.9,64.6,30.18,South,184,6.6,8.5,70,0.00,,---,0.00,VWS V14.01,2013-01-13 13:20:00,
2013-01-13 08:22:00,74.7,64.6,30.18,SSW,198,9.6,9.6,71,0.00,,---,0.00,VWS V14.01,2013-01-13 13:22:00,
2013-01-13 08:25:00,75.0,64.9,30.19,South,191,8.3,11.2,71,0.00,,---,0.00,VWS V14.01,2013-01-13 13:25:00,
2013-01-13 08:27:00,75.1,65.0,30.18,South,188,11.9,11.9,71,0.00,,---,0.00,VWS V14.01,2013-01-13 13:27:00,
2013-01-13 08:30:00,75.1,65.1,30.18,South,183,6.6,9.9,71,0.00,,---,0.00,VWS V14.01,2013-01-13 13:30:00,
2013-01-13 08:32:00,75.1,65.0,30.18,South,186,7.2,7.8,71,0.00,,---,0.00,VWS V14.01,2013-01-13 13:32:00,
2013-01-13 08:33:00,75.2,65.1,30.18,SSW,195,4.4,6.3,71,0.00,,---,0.00,VWS V14.01,2013-01-13 13:33:00,
2013-01-13 08:35:00,75.4,65.3,30.18,SSW,198,7.9,9.6,71,0.00,,---,0.00,VWS V14.01,2013-01-13 13:35:00,
2013-01-13 08:37:00,75.2,64.9,30.18,South,191,5.5,11.9,70,0.00,,---,0.00,VWS V14.01,2013-01-13 13:37:00,
2013-01-13 08:38:00,75.4,65.3,30.18,South,183,5.5,7.6,71,0.00,,---,0.00,VWS V14.01,2013-01-13 13:38:00,
2013-01-13 08:40:00,75.7,65.6,30.18,SSW,198,4.0,9.4,71,0.00,,---,0.00,VWS V14.01,2013-01-13 13:40:00,
2013-01-13 08:42:00,75.5,65.0,30.18,SSE,166,9.8,11.8,70,0.00,,---,0.00,VWS V14.01,2013-01-13 13:42:00,
2013-01-13 08:43:00,75.8,65.2,30.19,South,184,7.1,13.5,70,0.00,,---,0.00,VWS V14.01,2013-01-13 13:43:00,
2013-01-13 08:45:00,75.7,65.6,30.19,SSW,195,6.7,8.4,71,0.00,,---,0.00,VWS V14.01,2013-01-13 13:45:00,
2013-01-13 08:47:00,75.4,65.4,30.19,SE,142,9.8,10.9,71,0.00,,---,0.00,VWS V14.01,2013-01-13 13:47:00,
2013-01-13 08:48:00,75.3,65.5,30.19,South,191,8.9,10.9,72,0.00,,---,0.00,VWS V14.01,2013-01-13 13:48:00,
2013-01-13 08:50:00,75.2,65.7,30.19,South,173,3.9,8.9,72,0.00,,---,0.00,VWS V14.01,2013-01-13 13:50:00,
2013-01-13 08:52:00,75.4,65.6,30.19,SSW,204,7.2,7.3,72,0.00,,---,0.00,VWS V14.01,2013-01-13 13:52:00,
2013-01-13 08:53:00,75.4,65.4,30.19,South,184,9.4,11.7,71,0.00,,---,0.00,VWS V14.01,2013-01-13 13:53:00,
2013-01-13 08:55:00,75.7,65.2,30.19,South,183,6.5,10.1,70,0.00,,---,0.00,VWS V14.01,2013-01-13 13:55:00,
2013-01-13 08:57:00,75.6,65.2,30.19,SSE,160,6.8,10.9,70,0.00,,---,0.00,VWS V14.01,2013-01-13 13:57:00,
2013-01-13 08:58:00,75.6,65.4,30.19,SSW,193,6.4,10.9,71,0.00,,---,0.00,VWS V14.01,2013-01-13 13:58:00,
2013-01-13 09:00:00,75.6,65.5,30.19,SSW,195,10.9,12.3,71,0.00,,---,0.00,VWS V14.01,2013-01-13 14:00:00,
2013-01-13 09:02:00,75.8,65.7,30.19,South,173,7.2,9.4,71,0.00,,---,0.00,VWS V14.01,2013-01-13 14:02:00,
2013-01-13 09:03:00,75.7,65.6,30.19,South,169,8.3,9.4,71,0.00,,---,0.00,VWS V14.01,2013-01-13 14:03:00,
2013-01-13 09:05:00,76.1,65.4,30.19,SSW,193,6.1,7.3,70,0.00,,---,0.00,VWS V14.01,2013-01-13 14:05:00,
2013-01-13 09:07:00,76.4,65.7,30.19,SW,214,4.4,4.5,70,0.00,,---,0.00,VWS V14.01,2013-01-13 14:07:00,
2013-01-13 09:08:00,76.3,65.6,30.19,South,181,8.8,8.8,70,0.00,,---,0.00,VWS V14.01,2013-01-13 14:08:00,
2013-01-13 09:10:00,76.4,65.1,30.19,SSE,167,9.3,12.7,68,0.00,,---,0.00,VWS V14.01,2013-01-13 14:10:00,
2013-01-13 09:12:00,76.3,64.9,30.19,SSE,162,7.4,14.5,68,0.00,,---,0.00,VWS V14.01,2013-01-13 14:12:00,
2013-01-13 09:13:00,76.4,65.1,30.19,SSE,160,6.7,14.5,68,0.00,,---,0.00,VWS V14.01,2013-01-13 14:13:00,
2013-01-13 09:15:00,76.2,65.3,30.19,South,173,7.1,12.8,69,0.00,,---,0.00,VWS V14.01,2013-01-13 14:15:00,
2013-01-13 09:18:00,76.2,65.1,30.20,South,176,9.4,14.4,69,0.00,,---,0.00,VWS V14.01,2013-01-13 14:18:00,
2013-01-13 09:20:00,76.4,65.4,30.20,South,172,7.0,9.8,69,0.00,,---,0.00,VWS V14.01,2013-01-13 14:20:00,
2013-01-13 09:23:00,76.5,65.3,30.20,South,187,2.9,5.3,68,0.00,,---,0.00,VWS V14.01,2013-01-13 14:23:00,
2013-01-13 09:25:00,76.5,65.2,30.20,South,191,5.4,6.6,68,0.00,,---,0.00,VWS V14.01,2013-01-13 14:25:00,
2013-01-13 09:28:00,76.7,65.0,30.20,SSE,165,10.9,10.9,67,0.00,,---,0.00,VWS V14.01,2013-01-13 14:28:00,
2013-01-13 09:29:00,76.8,65.1,30.20,South,187,7.9,9.2,67,0.00,,---,0.00,VWS V14.01,2013-01-13 14:29:00,
2013-01-13 09:31:00,76.9,65.0,30.20,South,187,6.5,12.1,67,0.00,,---,0.00,VWS V14.01,2013-01-13 14:31:00,
2013-01-13 09:33:00,77.0,65.2,30.20,SSE,162,5.8,8.7,67,0.00,,---,0.00,VWS V14.01,2013-01-13 14:33:00,
2013-01-13 09:34:00,76.9,65.1,30.20,South,169,6.3,12.2,67,0.00,,---,0.00,VWS V14.01,2013-01-13 14:34:00,
2013-01-13 09:36:00,77.0,65.2,30.20,South,169,9.6,11.8,67,0.00,,---,0.00,VWS V14.01,2013-01-13 14:36:00,
2013-01-13 09:38:00,77.0,65.3,30.20,SSE,162,7.6,9.3,67,0.00,,---,0.00,VWS V14.01,2013-01-13 14:38:00,
2013-01-13 09:39:00,76.9,65.3,30.20,SSE,160,10.8,12.6,67,0.00,,---,0.00,VWS V14.01,2013-01-13 14:39:00,
2013-01-13 09:41:00,76.9,65.5,30.20,SSW,201,14.6,14.6,68,0.00,,---,0.00,VWS V14.01,2013-01-13 14:41:00,
2013-01-13 09:43:00,77.0,65.8,30.20,South,176,3.9,4.2,68,0.00,,---,0.00,VWS V14.01,2013-01-13 14:43:00,
2013-01-13 09:44:00,77.0,65.7,30.20,South,172,8.4,10.8,68,0.00,,---,0.00,VWS V14.01,2013-01-13 14:44:00,
2013-01-13 09:46:00,76.8,65.2,30.20,SSE,163,9.8,16.2,67,0.00,,---,0.00,VWS V14.01,2013-01-13 14:46:00,
2013-01-13 09:48:00,76.7,65.5,30.20,South,186,8.0,10.7,68,0.00,,---,0.00,VWS V14.01,2013-01-13 14:48:00,
2013-01-13 09:49:00,76.9,65.8,30.20,SSE,166,5.8,10.7,68,0.00,,---,0.00,VWS V14.01,2013-01-13 14:49:00,
2013-01-13 09:51:00,76.7,65.6,30.20,SSW,208,8.9,9.9,69,0.00,,---,0.00,VWS V14.01,2013-01-13 14:51:00,
2013-01-13 09:53:00,76.5,65.7,30.20,South,187,10.9,10.9,69,0.00,,---,0.00,VWS V14.01,2013-01-13 14:53:00,
2013-01-13 09:54:00,76.7,65.9,30.21,South,174,10.1,13.2,69,0.00,,---,0.00,VWS V14.01,2013-01-13 14:54:00,
2013-01-13 09:56:00,76.5,65.8,30.21,South,191,10.1,12.5,70,0.00,,---,0.00,VWS V14.01,2013-01-13 14:56:00,
2013-01-13 09:58:00,76.8,65.8,30.20,South,183,4.2,5.2,69,0.00,,---,0.00,VWS V14.01,2013-01-13 14:58:00,
2013-01-13 09:59:00,76.9,65.8,30.20,SSE,167,8.1,8.6,69,0.00,,---,0.00,VWS V14.01,2013-01-13 14:59:00,
2013-01-13 10:01:00,77.1,65.7,30.20,South,186,14.4,14.4,68,0.00,,---,0.00,VWS V14.01,2013-01-13 15:01:00,
2013-01-13 10:03:00,77.2,66.0,30.20,South,187,6.0,6.0,68,0.00,,---,0.00,VWS V14.01,2013-01-13 15:03:00,
2013-01-13 10:04:00,77.4,66.2,30.20,NNW,346,3.7,7.3,68,0.00,,---,0.00,VWS V14.01,2013-01-13 15:04:00,
2013-01-13 10:06:00,77.4,65.3,30.20,SSW,193,6.1,10.7,66,0.00,,---,0.00,VWS V14.01,2013-01-13 15:06:00,
2013-01-13 10:08:00,77.4,65.6,30.20,SSW,193,7.5,11.2,67,0.00,,---,0.00,VWS V14.01,2013-01-13 15:08:00,
2013-01-13 10:09:00,77.5,65.5,30.20,SE,138,9.3,14.7,67,0.00,,---,0.00,VWS V14.01,2013-01-13 15:09:00,
2013-01-13 10:11:00,77.3,65.4,30.20,South,174,9.8,12.2,67,0.00,,---,0.00,VWS V14.01,2013-01-13 15:11:00,
2013-01-13 10:13:00,77.3,65.6,30.20,SSE,165,8.3,12.9,67,0.00,,---,0.00,VWS V14.01,2013-01-13 15:13:00,
2013-01-13 10:14:00,77.3,65.8,30.20,SE,146,6.2,15.8,68,0.00,,---,0.00,VWS V14.01,2013-01-13 15:14:00,
2013-01-13 10:15:00,77.1,65.8,30.20,South,173,5.8,15.4,68,0.00,,---,0.00,VWS V14.01,2013-01-13 15:15:00,
2013-01-13 10:16:00,77.2,66.0,30.20,South,173,10.8,12.5,68,0.00,,---,0.00,VWS V14.01,2013-01-13 15:16:00,
2013-01-13 10:18:00,77.1,66.2,30.20,South,186,9.3,13.6,69,0.00,,---,0.00,VWS V14.01,2013-01-13 15:18:00,
2013-01-13 10:19:00,77.1,65.9,30.20,SSW,195,12.4,12.4,68,0.00,,---,0.00,VWS V14.01,2013-01-13 15:19:00,
2013-01-13 10:20:00,77.1,66.0,30.20,South,190,6.8,14.4,69,0.00,,---,0.00,VWS V14.01,2013-01-13 15:20:00,
2013-01-13 10:21:00,77.2,65.8,30.20,South,176,9.4,13.5,68,0.00,,---,0.00,VWS V14.01,2013-01-13 15:21:00,
2013-01-13 10:23:00,77.2,65.8,30.20,South,176,12.4,12.4,68,0.00,,---,0.00,VWS V14.01,2013-01-13 15:23:00,
2013-01-13 10:24:00,77.3,66.0,30.20,SSE,167,8.8,8.8,68,0.00,,---,0.00,VWS V14.01,2013-01-13 15:24:00,
2013-01-13 10:25:00,77.1,66.0,30.20,SE,134,8.0,9.6,69,0.00,,---,0.00,VWS V14.01,2013-01-13 15:25:00,
2013-01-13 10:26:00,77.1,65.9,30.20,South,169,7.2,13.1,68,0.00,,---,0.00,VWS V14.01,2013-01-13 15:26:00,
2013-01-13 10:29:00,77.5,66.4,30.20,South,183,9.3,12.9,69,0.00,,---,0.00,VWS V14.01,2013-01-13 15:29:00,
2013-01-13 10:30:00,77.8,66.1,30.20,South,187,7.7,8.5,67,0.00,,---,0.00,VWS V14.01,2013-01-13 15:30:00,
2013-01-13 10:32:00,77.8,65.8,30.20,South,188,9.3,14.9,66,0.00,,---,0.00,VWS V14.01,2013-01-13 15:32:00,
2013-01-13 10:34:00,77.4,65.4,30.20,South,188,8.9,12.9,67,0.00,,---,0.00,VWS V14.01,2013-01-13 15:34:00,
2013-01-13 10:35:00,77.4,65.8,30.20,SSE,166,5.5,8.5,68,0.00,,---,0.00,VWS V14.01,2013-01-13 15:35:00,
2013-01-13 10:37:00,77.4,65.9,30.20,SSW,207,18.2,20.0,68,0.00,,---,0.00,VWS V14.01,2013-01-13 15:37:00,
2013-01-13 10:39:00,77.3,65.8,30.20,South,177,8.6,13.5,68,0.00,,---,0.00,VWS V14.01,2013-01-13 15:39:00,
2013-01-13 10:40:00,77.4,65.7,30.20,SSE,156,7.7,10.9,67,0.00,,---,0.00,VWS V14.01,2013-01-13 15:40:00,
2013-01-13 10:42:00,77.4,65.8,30.20,South,183,7.0,10.7,68,0.00,,---,0.00,VWS V14.01,2013-01-13 15:42:00,
2013-01-13 10:44:00,77.4,66.2,30.20,SE,146,4.3,9.6,68,0.00,,---,0.00,VWS V14.01,2013-01-13 15:44:00,
2013-01-13 10:45:00,77.4,66.2,30.20,SSE,166,9.5,9.5,68,0.00,,---,0.00,VWS V14.01,2013-01-13 15:45:00,
2013-01-13 10:47:00,77.3,66.1,30.20,South,169,9.1,12.4,68,0.00,,---,0.00,VWS V14.01,2013-01-13 15:47:00,
2013-01-13 10:49:00,77.2,66.0,30.20,South,181,11.1,11.1,68,0.00,,---,0.00,VWS V14.01,2013-01-13 15:49:00,
2013-01-13 10:50:00,77.1,65.7,30.20,SE,142,7.8,13.4,68,0.00,,---,0.00,VWS V14.01,2013-01-13 15:50:00,
2013-01-13 10:53:00,76.9,66.1,30.20,South,174,8.1,12.6,69,0.00,,---,0.00,VWS V14.01,2013-01-13 15:53:00,
2013-01-13 10:54:00,76.9,66.1,30.20,SSE,158,4.5,12.2,69,0.00,,---,0.00,VWS V14.01,2013-01-13 15:54:00,
2013-01-13 10:55:00,76.9,66.2,30.20,SSW,193,9.0,9.8,70,0.00,,---,0.00,VWS V14.01,2013-01-13 15:55:00,
2013-01-13 10:58:00,77.1,66.7,30.20,South,174,7.1,9.6,70,0.00,,---,0.00,VWS V14.01,2013-01-13 15:58:00,
2013-01-13 10:59:00,76.7,66.0,30.20,SSW,198,6.3,12.4,70,0.00,,---,0.00,VWS V14.01,2013-01-13 15:59:00,
2013-01-13 11:00:00,76.8,66.3,30.20,South,176,6.3,6.8,70,0.00,,---,0.00,VWS V14.01,2013-01-13 16:00:00,
2013-01-13 11:03:00,76.9,66.2,30.20,SSE,159,9.6,10.4,70,0.00,,---,0.00,VWS V14.01,2013-01-13 16:03:00,
2013-01-13 11:04:00,76.7,65.9,30.20,South,191,7.3,12.9,69,0.00,,---,0.00,VWS V14.01,2013-01-13 16:04:00,
2013-01-13 11:05:00,76.9,66.2,30.20,South,179,12.2,12.9,70,0.00,,---,0.00,VWS V14.01,2013-01-13 16:05:00,
2013-01-13 11:08:00,76.7,66.2,30.20,South,184,10.3,13.2,70,0.00,,---,0.00,VWS V14.01,2013-01-13 16:08:00,
2013-01-13 11:09:00,76.7,66.2,30.20,South,188,8.8,14.9,70,0.00,,---,0.00,VWS V14.01,2013-01-13 16:09:00,
2013-01-13 11:10:00,76.8,66.2,30.20,SSW,195,10.6,14.9,70,0.00,,---,0.00,VWS V14.01,2013-01-13 16:10:00,
2013-01-13 11:11:00,76.9,66.3,30.20,South,181,7.0,9.6,70,0.00,,---,0.00,VWS V14.01,2013-01-13 16:11:00,
2013-01-13 11:13:00,77.1,66.3,30.20,SSW,200,8.0,10.6,69,0.00,,---,0.00,VWS V14.01,2013-01-13 16:13:00,
2013-01-13 11:14:00,76.9,66.0,30.20,South,177,6.8,11.3,69,0.00,,---,0.00,VWS V14.01,2013-01-13 16:14:00,
2013-01-13 11:15:00,77.0,66.2,30.20,South,179,8.6,11.3,69,0.00,,---,0.00,VWS V14.01,2013-01-13 16:15:00,
2013-01-13 11:16:00,77.0,66.2,30.20,South,179,7.3,11.9,69,0.00,,---,0.00,VWS V14.01,2013-01-13 16:16:00,
2013-01-13 11:18:00,76.8,66.3,30.20,SSW,193,8.3,13.2,70,0.00,,---,0.00,VWS V14.01,2013-01-13 16:18:00,
2013-01-13 11:19:00,76.8,66.4,30.20,South,174,9.3,9.6,70,0.00,,---,0.00,VWS V14.01,2013-01-13 16:19:00,
2013-01-13 11:20:00,76.6,66.3,30.20,SSW,204,7.5,14.5,70,0.00,,---,0.00,VWS V14.01,2013-01-13 16:20:00,
2013-01-13 11:21:00,76.5,66.3,30.20,SSW,208,8.0,10.6,71,0.00,,---,0.00,VWS V14.01,2013-01-13 16:21:00,
2013-01-13 11:23:00,76.4,66.4,30.20,SSW,210,4.6,8.5,71,0.00,,---,0.00,VWS V14.01,2013-01-13 16:23:00,
2013-01-13 11:25:00,76.3,66.5,30.20,SE,125,8.3,8.3,72,0.00,,---,0.00,VWS V14.01,2013-01-13 16:25:00,
2013-01-13 11:26:00,76.1,66.3,30.20,South,173,8.9,10.4,72,0.00,,---,0.00,VWS V14.01,2013-01-13 16:26:00,
2013-01-13 11:28:00,76.2,66.7,30.20,SSE,158,3.9,7.0,72,0.00,,---,0.00,VWS V14.01,2013-01-13 16:28:00,
2013-01-13 11:30:00,76.3,66.9,30.21,SSE,165,5.3,6.6,73,0.00,,---,0.00,VWS V14.01,2013-01-13 16:30:00,
2013-01-13 11:31:00,76.3,66.7,30.21,South,186,6.8,13.6,72,0.00,,---,0.00,VWS V14.01,2013-01-13 16:31:00,
2013-01-13 11:34:00,76.6,66.8,30.21,SE,134,9.3,11.0,72,0.00,,---,0.00,VWS V14.01,2013-01-13 16:34:00,
2013-01-13 11:35:00,76.6,66.5,30.21,South,180,6.5,10.5,71,0.00,,---,0.00,VWS V14.01,2013-01-13 16:35:00,
2013-01-13 11:36:00,76.7,66.7,30.21,SSE,163,3.7,3.7,71,0.00,,---,0.00,VWS V14.01,2013-01-13 16:36:00,
2013-01-13 11:39:00,76.7,66.7,30.21,South,183,5.3,7.1,71,0.00,,---,0.00,VWS V14.01,2013-01-13 16:39:00,
2013-01-13 11:40:00,76.6,66.7,30.21,SSW,195,5.4,9.2,71,0.00,,---,0.00,VWS V14.01,2013-01-13 16:40:00,
2013-01-13 11:41:00,76.6,66.6,30.21,South,191,4.0,4.0,71,0.00,,---,0.00,VWS V14.01,2013-01-13 16:41:00,
2013-01-13 11:44:00,76.5,65.7,30.21,South,181,5.6,11.6,69,0.00,,---,0.00,VWS V14.01,2013-01-13 16:44:00,
2013-01-13 11:45:00,76.5,65.7,30.21,South,173,8.3,9.6,69,0.00,,---,0.00,VWS V14.01,2013-01-13 16:45:00,
2013-01-13 11:46:00,76.8,66.0,30.21,South,176,7.1,7.1,69,0.00,,---,0.00,VWS V14.01,2013-01-13 16:46:00,
2013-01-13 11:49:00,77.0,65.9,30.21,SW,224,2.3,6.0,69,0.00,,---,0.00,VWS V14.01,2013-01-13 16:49:00,
2013-01-13 11:50:00,77.2,65.8,30.21,WSW,240,7.6,10.4,68,0.00,,---,0.00,VWS V14.01,2013-01-13 16:50:00,
2013-01-13 11:51:00,77.2,65.6,30.21,WSW,240,4.5,5.7,67,0.00,,---,0.00,VWS V14.01,2013-01-13 16:51:00,
2013-01-13 11:54:00,77.2,65.4,30.21,South,174,7.8,11.2,67,0.00,,---,0.00,VWS V14.01,2013-01-13 16:54:00,
2013-01-13 11:55:00,77.4,65.5,30.21,SSW,207,6.0,10.7,67,0.00,,---,0.00,VWS V14.01,2013-01-13 16:55:00,
2013-01-13 11:56:00,77.3,65.7,30.21,SW,225,6.6,9.3,68,0.00,,---,0.00,VWS V14.01,2013-01-13 16:56:00,
2013-01-13 11:59:00,77.9,65.9,30.21,SSW,212,8.7,11.6,67,0.00,,---,0.00,VWS V14.01,2013-01-13 16:59:00,
2013-01-13 12:00:00,78.0,65.9,30.21,SSE,167,9.1,11.9,66,0.00,,---,0.00,VWS V14.01,2013-01-13 17:00:00,
2013-01-13 12:01:00,78.1,65.7,30.21,SSE,166,4.1,6.3,66,0.00,,---,0.00,VWS V14.01,2013-01-13 17:01:00,
2013-01-13 12:04:00,78.2,65.5,30.21,SSW,197,4.4,7.0,65,0.00,,---,0.00,VWS V14.01,2013-01-13 17:04:00,
2013-01-13 12:05:00,78.5,65.9,30.21,SSW,200,3.3,6.0,65,0.00,,---,0.00,VWS V14.01,2013-01-13 17:05:00,
2013-01-13 12:06:00,78.5,66.1,30.21,South,172,7.6,8.8,66,0.00,,---,0.00,VWS V14.01,2013-01-13 17:06:00,
2013-01-13 12:09:00,78.8,65.3,30.21,SSW,193,7.3,8.1,63,0.00,,---,0.00,VWS V14.01,2013-01-13 17:09:00,
2013-01-13 12:10:00,78.8,65.7,30.21,SSW,198,8.1,8.8,64,0.00,,---,0.00,VWS V14.01,2013-01-13 17:10:00,
2013-01-13 12:11:00,78.9,65.3,30.20,South,176,7.3,9.7,63,0.00,,---,0.00,VWS V14.01,2013-01-13 17:11:00,
2013-01-13 12:14:00,79.2,65.8,30.21,SSW,200,3.4,8.3,64,0.00,,---,0.00,VWS V14.01,2013-01-13 17:14:00,
2013-01-13 12:15:00,79.2,65.8,30.21,South,186,4.0,6.4,64,0.00,,---,0.00,VWS V14.01,2013-01-13 17:15:00,
2013-01-13 12:16:00,79.2,65.9,30.21,SSW,204,8.6,8.6,64,0.00,,---,0.00,VWS V14.01,2013-01-13 17:16:00,
2013-01-13 12:19:00,79.0,65.9,30.21,SSW,208,4.4,5.0,64,0.00,,---,0.00,VWS V14.01,2013-01-13 17:19:00,
2013-01-13 12:20:00,78.9,66.0,30.21,South,191,4.0,5.0,65,0.00,,---,0.00,VWS V14.01,2013-01-13 17:20:00,
2013-01-13 12:21:00,79.0,66.1,30.21,South,187,3.9,5.0,65,0.00,,---,0.00,VWS V14.01,2013-01-13 17:21:00,
2013-01-13 12:22:00,78.9,65.8,30.21,SSW,193,4.9,8.9,64,0.00,,---,0.00,VWS V14.01,2013-01-13 17:22:00,
2013-01-13 12:25:00,79.0,65.8,30.21,SSE,163,2.7,8.6,64,0.00,,---,0.00,VWS V14.01,2013-01-13 17:25:00,
2013-01-13 12:26:00,79.1,66.1,30.21,SSW,198,5.6,7.7,64,0.00,,---,0.00,VWS V14.01,2013-01-13 17:26:00,
2013-01-13 12:27:00,79.0,65.7,30.20,South,188,4.3,7.2,64,0.00,,---,0.00,VWS V14.01,2013-01-13 17:27:00,
2013-01-13 12:30:00,78.9,65.7,30.20,South,184,7.3,8.5,64,0.00,,---,0.00,VWS V14.01,2013-01-13 17:30:00,
2013-01-13 12:31:00,78.7,65.6,30.20,South,176,7.2,9.6,64,0.00,,---,0.00,VWS V14.01,2013-01-13 17:31:00,
2013-01-13 12:32:00,78.7,65.3,30.20,SSW,204,9.6,10.4,64,0.00,,---,0.00,VWS V14.01,2013-01-13 17:32:00,
2013-01-13 12:35:00,78.2,65.7,30.20,SW,228,6.8,7.9,65,0.00,,---,0.00,VWS V14.01,2013-01-13 17:35:00,
2013-01-13 12:36:00,78.0,65.3,30.20,SW,219,8.5,8.5,65,0.00,,---,0.00,VWS V14.01,2013-01-13 17:36:00,
2013-01-13 12:37:00,78.1,65.2,30.20,South,187,3.1,8.5,64,0.00,,---,0.00,VWS V14.01,2013-01-13 17:37:00,
2013-01-13 12:40:00,77.8,65.3,30.20,SSW,200,5.0,8.9,66,0.00,,---,0.00,VWS V14.01,2013-01-13 17:40:00,
2013-01-13 12:41:00,77.8,65.5,30.20,SSW,193,6.4,8.0,66,0.00,,---,0.00,VWS V14.01,2013-01-13 17:41:00,
2013-01-13 12:42:00,77.8,65.7,30.20,SSW,205,2.4,6.4,66,0.00,,---,0.00,VWS V14.01,2013-01-13 17:42:00,
2013-01-13 12:45:00,77.4,65.0,30.20,SSW,194,4.3,6.7,66,0.00,,---,0.00,VWS V14.01,2013-01-13 17:45:00,
2013-01-13 12:46:00,77.5,65.3,30.20,South,184,5.1,6.7,66,0.00,,---,0.00,VWS V14.01,2013-01-13 17:46:00,
2013-01-13 12:47:00,77.7,65.5,30.20,SSE,158,2.7,5.1,66,0.00,,---,0.00,VWS V14.01,2013-01-13 17:47:00,
2013-01-13 12:50:00,77.5,65.3,30.20,SSW,202,5.5,7.1,66,0.00,,---,0.00,VWS V14.01,2013-01-13 17:50:00,
2013-01-13 12:51:00,77.7,65.6,30.20,SW,235,5.6,6.0,66,0.00,,---,0.00,VWS V14.01,2013-01-13 17:51:00,
2013-01-13 12:52:00,77.7,65.4,30.20,SSW,205,3.2,7.5,66,0.00,,---,0.00,VWS V14.01,2013-01-13 17:52:00,
2013-01-13 12:55:00,77.7,65.0,30.20,SSW,202,5.5,8.7,65,0.00,,---,0.00,VWS V14.01,2013-01-13 17:55:00,
2013-01-13 12:56:00,77.7,65.1,30.20,SSW,197,8.4,8.7,65,0.00,,---,0.00,VWS V14.01,2013-01-13 17:56:00,
2013-01-13 12:57:00,78.0,65.2,30.20,South,174,4.2,4.3,65,0.00,,---,0.00,VWS V14.01,2013-01-13 17:57:00,
2013-01-13 13:00:00,78.7,65.0,30.20,SSW,198,5.2,7.8,63,0.00,,---,0.00,VWS V14.01,2013-01-13 18:00:00,
2013-01-13 13:01:00,78.5,64.8,30.20,SSW,200,2.6,7.8,63,0.00,,---,0.00,VWS V14.01,2013-01-13 18:01:00,
2013-01-13 13:02:00,78.8,65.1,30.20,SW,231,4.8,5.5,63,0.00,,---,0.00,VWS V14.01,2013-01-13 18:02:00,
2013-01-13 13:05:00,79.3,64.7,30.20,SSW,204,9.1,9.1,61,0.00,,---,0.00,VWS V14.01,2013-01-13 18:05:00,
2013-01-13 13:06:00,79.4,64.8,30.20,South,183,7.6,9.1,61,0.00,,---,0.00,VWS V14.01,2013-01-13 18:06:00,
2013-01-13 13:07:00,79.5,65.0,30.20,South,186,3.8,5.5,61,0.00,,---,0.00,VWS V14.01,2013-01-13 18:07:00,
2013-01-13 13:11:00,79.4,64.6,30.20,SSW,197,3.4,9.3,60,0.00,,---,0.00,VWS V14.01,2013-01-13 18:11:00,
2013-01-13 13:12:00,79.3,64.3,30.20,South,187,5.1,7.9,60,0.00,,---,0.00,VWS V14.01,2013-01-13 18:12:00,
2013-01-13 13:16:00,79.1,65.3,30.20,SSW,205,2.1,7.8,63,0.00,,---,0.00,VWS V14.01,2013-01-13 18:16:00,
2013-01-13 13:17:00,79.0,65.2,30.20,SSW,200,4.5,8.0,63,0.00,,---,0.00,VWS V14.01,2013-01-13 18:17:00,
2013-01-13 13:21:00,78.8,64.4,30.20,South,187,4.8,9.4,61,0.00,,---,0.00,VWS V14.01,2013-01-13 18:21:00,
2013-01-13 13:22:00,78.7,64.8,30.20,South,177,3.5,8.6,62,0.00,,---,0.00,VWS V14.01,2013-01-13 18:22:00,
2013-01-13 13:26:00,78.5,64.8,30.20,South,176,7.2,9.7,63,0.00,,---,0.00,VWS V14.01,2013-01-13 18:26:00,
2013-01-13 13:27:00,78.4,64.6,30.20,SSE,160,5.2,6.2,62,0.00,,---,0.00,VWS V14.01,2013-01-13 18:27:00,
2013-01-13 13:28:00,78.5,64.8,30.20,SSW,198,7.3,12.8,63,0.00,,---,0.00,VWS V14.01,2013-01-13 18:28:00,
2013-01-13 13:31:00,78.2,63.9,30.20,South,180,3.2,7.0,62,0.00,,---,0.00,VWS V14.01,2013-01-13 18:31:00,
2013-01-13 13:32:00,78.4,64.6,30.19,SSW,202,5.9,7.6,63,0.00,,---,0.00,VWS V14.01,2013-01-13 18:32:00,
2013-01-13 13:33:00,78.5,64.3,30.20,SSW,195,5.0,8.8,62,0.00,,---,0.00,VWS V14.01,2013-01-13 18:33:00,
2013-01-13 13:36:00,79.0,64.7,30.19,SE,128,0.9,3.0,62,0.00,,---,0.00,VWS V14.01,2013-01-13 18:36:00,
2013-01-13 13:37:00,78.9,64.2,30.19,South,184,3.7,7.6,61,0.00,,---,0.00,VWS V14.01,2013-01-13 18:37:00,
2013-01-13 13:38:00,78.9,64.4,30.19,SSE,152,2.9,7.6,61,0.00,,---,0.00,VWS V14.01,2013-01-13 18:38:00,
2013-01-13 13:41:00,79.1,64.1,30.19,South,181,6.8,6.8,60,0.00,,---,0.00,VWS V14.01,2013-01-13 18:41:00,
2013-01-13 13:42:00,79.0,64.3,30.19,SSE,149,6.5,9.3,61,0.00,,---,0.00,VWS V14.01,2013-01-13 18:42:00,
2013-01-13 13:43:00,79.0,64.4,30.19,SW,219,5.0,7.3,61,0.00,,---,0.00,VWS V14.01,2013-01-13 18:43:00,
2013-01-13 13:46:00,79.2,65.2,30.19,South,184,3.1,6.8,62,0.00,,---,0.00,VWS V14.01,2013-01-13 18:46:00,
2013-01-13 13:47:00,79.1,65.0,30.19,South,184,5.6,7.1,62,0.00,,---,0.00,VWS V14.01,2013-01-13 18:47:00,
2013-01-13 13:48:00,79.2,65.2,30.19,South,181,4.0,7.1,62,0.00,,---,0.00,VWS V14.01,2013-01-13 18:48:00,
2013-01-13 13:51:00,79.3,65.3,30.19,SSW,193,4.9,4.9,62,0.00,,---,0.00,VWS V14.01,2013-01-13 18:51:00,
2013-01-13 13:52:00,79.2,64.8,30.19,SW,231,0.0,2.4,62,0.00,,---,0.00,VWS V14.01,2013-01-13 18:52:00,
2013-01-13 13:53:00,79.3,64.7,30.19,South,188,3.4,4.8,61,0.00,,---,0.00,VWS V14.01,2013-01-13 18:53:00,
2013-01-13 13:56:00,79.5,64.8,30.19,SSW,195,4.1,4.7,61,0.00,,---,0.00,VWS V14.01,2013-01-13 18:56:00,
2013-01-13 13:57:00,79.9,64.9,30.19,SW,217,2.8,3.9,60,0.00,,---,0.00,VWS V14.01,2013-01-13 18:57:00,
2013-01-13 13:58:00,79.8,63.7,30.19,SSW,194,4.7,8.1,58,0.00,,---,0.00,VWS V14.01,2013-01-13 18:58:00,
2013-01-13 14:01:00,80.0,63.8,30.19,SSW,194,3.8,8.0,58,0.00,,---,0.00,VWS V14.01,2013-01-13 19:01:00,
2013-01-13 14:02:00,80.0,63.5,30.19,South,183,6.5,6.5,57,0.00,,---,0.00,VWS V14.01,2013-01-13 19:02:00,
2013-01-13 14:03:00,80.0,63.5,30.19,SSW,194,7.0,7.0,57,0.00,,---,0.00,VWS V14.01,2013-01-13 19:03:00,
2013-01-13 14:07:00,79.8,64.9,30.19,SE,125,2.1,7.8,60,0.00,,---,0.00,VWS V14.01,2013-01-13 19:07:00,
2013-01-13 14:08:00,79.8,64.8,30.19,SSW,204,6.1,8.0,60,0.00,,---,0.00,VWS V14.01,2013-01-13 19:08:00,
2013-01-13 14:12:00,79.5,64.5,30.19,South,183,5.7,5.7,60,0.00,,---,0.00,VWS V14.01,2013-01-13 19:12:00,
2013-01-13 14:13:00,79.9,65.0,30.19,South,173,1.7,4.3,60,0.00,,---,0.00,VWS V14.01,2013-01-13 19:13:00,
2013-01-13 14:17:00,79.7,64.7,30.19,SW,224,3.5,4.7,60,0.00,,---,0.00,VWS V14.01,2013-01-13 19:17:00,
2013-01-13 14:18:00,80.0,64.8,30.19,SSW,207,5.8,5.8,60,0.00,,---,0.00,VWS V14.01,2013-01-13 19:18:00,
2013-01-13 14:19:00,80.0,64.0,30.19,SSW,197,4.9,8.7,58,0.00,,---,0.00,VWS V14.01,2013-01-13 19:19:00,
2013-01-13 14:22:00,79.3,64.2,30.19,SSW,200,5.4,7.1,60,0.00,,---,0.00,VWS V14.01,2013-01-13 19:22:00,
2013-01-13 14:23:00,79.3,64.1,30.19,South,191,7.2,8.7,60,0.00,,---,0.00,VWS V14.01,2013-01-13 19:23:00,
2013-01-13 14:24:00,79.2,64.4,30.19,South,181,3.4,7.1,61,0.00,,---,0.00,VWS V14.01,2013-01-13 19:24:00,
2013-01-13 14:27:00,78.7,64.3,30.19,South,191,7.3,9.8,61,0.00,,---,0.00,VWS V14.01,2013-01-13 19:27:00,
2013-01-13 14:28:00,78.2,64.2,30.19,SSW,195,3.8,7.8,62,0.00,,---,0.00,VWS V14.01,2013-01-13 19:28:00,
2013-01-13 14:29:00,78.2,64.3,30.19,South,184,7.4,11.1,62,0.00,,---,0.00,VWS V14.01,2013-01-13 19:29:00,
2013-01-13 14:32:00,78.2,64.5,30.19,South,170,1.3,6.1,63,0.00,,---,0.00,VWS V14.01,2013-01-13 19:32:00,
2013-01-13 14:33:00,78.2,64.6,30.19,SW,233,5.8,7.6,63,0.00,,---,0.00,VWS V14.01,2013-01-13 19:33:00,
2013-01-13 14:34:00,78.3,64.2,30.19,SSW,197,5.3,10.1,62,0.00,,---,0.00,VWS V14.01,2013-01-13 19:34:00,
2013-01-13 14:37:00,78.9,64.6,30.18,SSE,155,6.8,10.4,62,0.00,,---,0.00,VWS V14.01,2013-01-13 19:37:00,
2013-01-13 14:38:00,79.0,64.5,30.19,South,176,6.7,7.4,61,0.00,,---,0.00,VWS V14.01,2013-01-13 19:38:00,
2013-01-13 14:39:00,78.9,64.4,30.19,South,183,8.0,8.0,61,0.00,,---,0.00,VWS V14.01,2013-01-13 19:39:00,
2013-01-13 14:42:00,79.1,65.0,30.19,SSW,204,8.8,9.1,62,0.00,,---,0.00,VWS V14.01,2013-01-13 19:42:00,
2013-01-13 14:43:00,79.1,64.9,30.19,SSE,162,2.8,3.4,62,0.00,,---,0.00,VWS V14.01,2013-01-13 19:43:00,
2013-01-13 14:44:00,79.0,64.9,30.19,South,181,5.5,5.5,62,0.00,,---,0.00,VWS V14.01,2013-01-13 19:44:00,
2013-01-13 14:48:00,79.0,64.7,30.19,SSW,207,5.5,8.7,62,0.00,,---,0.00,VWS V14.01,2013-01-13 19:48:00,
2013-01-13 14:49:00,79.0,64.9,30.19,SW,215,5.7,6.2,62,0.00,,---,0.00,VWS V14.01,2013-01-13 19:49:00,
2013-01-13 14:50:00,79.0,64.8,30.18,SW,226,13.5,13.5,62,0.00,,---,0.00,VWS V14.01,2013-01-13 19:50:00,
2013-01-13 14:53:00,79.0,64.5,30.19,SSE,166,7.3,9.3,61,0.00,,---,0.00,VWS V14.01,2013-01-13 19:53:00,
2013-01-13 14:54:00,79.0,64.5,30.19,South,177,8.6,9.8,61,0.00,,---,0.00,VWS V14.01,2013-01-13 19:54:00,
2013-01-13 14:55:00,78.9,64.0,30.19,SSE,152,8.3,8.7,60,0.00,,---,0.00,VWS V14.01,2013-01-13 19:55:00,
2013-01-13 14:58:00,78.8,64.5,30.19,South,190,8.9,9.3,62,0.00,,---,0.00,VWS V14.01,2013-01-13 19:58:00,
2013-01-13 14:59:00,78.9,64.6,30.19,SE,136,5.7,8.6,62,0.00,,---,0.00,VWS V14.01,2013-01-13 19:59:00,
2013-01-13 15:00:00,78.8,64.5,30.19,SSW,202,7.0,7.0,62,0.00,,---,0.00,VWS V14.01,2013-01-13 20:00:00,
2013-01-13 15:03:00,78.8,64.3,30.19,South,184,4.5,8.7,61,0.00,,---,0.00,VWS V14.01,2013-01-13 20:03:00,
2013-01-13 15:04:00,78.8,64.5,30.19,SSW,194,5.8,5.8,62,0.00,,---,0.00,VWS V14.01,2013-01-13 20:04:00,
2013-01-13 15:05:00,78.7,64.6,30.19,SSW,202,4.2,5.8,62,0.00,,---,0.00,VWS V14.01,2013-01-13 20:05:00,
2013-01-13 15:08:00,78.3,64.6,30.19,South,177,3.2,8.8,63,0.00,,---,0.00,VWS V14.01,2013-01-13 20:08:00,
2013-01-13 15:09:00,78.2,64.5,30.19,SSW,195,6.2,7.7,63,0.00,,---,0.00,VWS V14.01,2013-01-13 20:09:00,
2013-01-13 15:10:00,78.2,64.6,30.19,South,191,6.0,7.0,63,0.00,,---,0.00,VWS V14.01,2013-01-13 20:10:00,
2013-01-13 15:13:00,77.8,64.0,30.19,SSW,193,3.2,8.0,63,0.00,,---,0.00,VWS V14.01,2013-01-13 20:13:00,
2013-01-13 15:14:00,77.8,64.1,30.19,South,188,4.8,6.3,63,0.00,,---,0.00,VWS V14.01,2013-01-13 20:14:00,
2013-01-13 15:15:00,77.8,64.4,30.19,SSW,194,2.8,3.0,63,0.00,,---,0.00,VWS V14.01,2013-01-13 20:15:00,
2013-01-13 15:18:00,77.9,64.1,30.19,SW,215,6.0,9.8,62,0.00,,---,0.00,VWS V14.01,2013-01-13 20:18:00,
2013-01-13 15:19:00,77.8,64.0,30.19,South,187,6.6,9.8,62,0.00,,---,0.00,VWS V14.01,2013-01-13 20:19:00,
2013-01-13 15:20:00,77.9,63.9,30.19,SW,228,3.9,4.4,62,0.00,,---,0.00,VWS V14.01,2013-01-13 20:20:00,
2013-01-13 15:23:00,78.1,64.0,30.19,SSW,200,1.3,2.1,62,0.00,,---,0.00,VWS V14.01,2013-01-13 20:23:00,
2013-01-13 15:24:00,78.1,64.0,30.19,SSW,205,2.0,5.7,62,0.00,,---,0.00,VWS V14.01,2013-01-13 20:24:00,
2013-01-13 15:25:00,78.1,64.0,30.19,SW,214,8.2,8.7,62,0.00,,---,0.00,VWS V14.01,2013-01-13 20:25:00,
2013-01-13 15:28:00,78.1,64.2,30.19,South,188,8.2,8.8,62,0.00,,---,0.00,VWS V14.01,2013-01-13 20:28:00,
2013-01-13 15:29:00,78.0,64.0,30.19,South,187,7.1,8.8,62,0.00,,---,0.00,VWS V14.01,2013-01-13 20:29:00,
2013-01-13 15:30:00,78.0,64.3,30.19,South,170,3.8,5.7,63,0.00,,---,0.00,VWS V14.01,2013-01-13 20:30:00,
2013-01-13 15:33:00,78.0,64.3,30.19,SSW,194,5.3,7.0,63,0.00,,---,0.00,VWS V14.01,2013-01-13 20:33:00,
2013-01-13 15:34:00,77.9,64.2,30.19,South,183,2.2,7.0,63,0.00,,---,0.00,VWS V14.01,2013-01-13 20:34:00,
2013-01-13 15:36:00,77.8,64.3,30.19,South,191,3.5,3.9,63,0.00,,---,0.00,VWS V14.01,2013-01-13 20:36:00,
2013-01-13 15:38:00,77.5,63.7,30.20,South,190,5.9,6.9,63,0.00,,---,0.00,VWS V14.01,2013-01-13 20:38:00,
2013-01-13 15:39:00,77.5,63.7,30.20,SSW,201,5.2,6.9,63,0.00,,---,0.00,VWS V14.01,2013-01-13 20:39:00,
2013-01-13 15:40:00,77.3,63.7,30.20,SSW,201,4.5,8.9,63,0.00,,---,0.00,VWS V14.01,2013-01-13 20:40:00,
2013-01-13 15:41:00,77.4,63.7,30.20,South,187,3.3,4.7,63,0.00,,---,0.00,VWS V14.01,2013-01-13 20:41:00,
2013-01-13 15:43:00,77.4,63.7,30.20,SSE,163,3.5,6.7,63,0.00,,---,0.00,VWS V14.01,2013-01-13 20:43:00,
2013-01-13 15:44:00,77.3,63.8,30.20,South,177,6.6,6.7,63,0.00,,---,0.00,VWS V14.01,2013-01-13 20:44:00,
2013-01-13 15:45:00,77.3,63.6,30.20,SSW,197,2.5,8.0,63,0.00,,---,0.00,VWS V14.01,2013-01-13 20:45:00,
2013-01-13 15:46:00,77.2,63.6,30.20,SSW,210,2.9,4.6,63,0.00,,---,0.00,VWS V14.01,2013-01-13 20:46:00,
2013-01-13 15:49:00,77.1,63.9,30.20,South,187,4.7,6.0,64,0.00,,---,0.00,VWS V14.01,2013-01-13 20:49:00,
2013-01-13 15:50:00,77.1,64.0,30.19,South,176,8.9,8.9,64,0.00,,---,0.00,VWS V14.01,2013-01-13 20:50:00,
2013-01-13 15:51:00,76.9,63.7,30.20,SE,124,4.8,10.4,64,0.00,,---,0.00,VWS V14.01,2013-01-13 20:51:00,
2013-01-13 15:54:00,76.7,63.7,30.20,SSW,201,5.2,8.5,64,0.00,,---,0.00,VWS V14.01,2013-01-13 20:54:00,
2013-01-13 15:55:00,76.8,63.8,30.20,South,179,3.4,3.4,64,0.00,,---,0.00,VWS V14.01,2013-01-13 20:55:00,
2013-01-13 15:56:00,76.9,63.8,30.20,South,191,4.5,8.4,64,0.00,,---,0.00,VWS V14.01,2013-01-13 20:56:00,
2013-01-13 15:59:00,76.8,63.4,30.20,SSE,165,4.0,6.6,63,0.00,,---,0.00,VWS V14.01,2013-01-13 20:59:00,
2013-01-13 16:00:00,76.9,63.5,30.20,South,177,7.5,7.6,63,0.00,,---,0.00,VWS V14.01,2013-01-13 21:00:00,
2013-01-13 16:01:00,76.7,63.1,30.20,South,188,3.5,7.6,63,0.00,,---,0.00,VWS V14.01,2013-01-13 21:01:00,
2013-01-13 16:04:00,77.0,63.1,30.20,South,188,7.4,9.2,62,0.00,,---,0.00,VWS V14.01,2013-01-13 21:04:00,
2013-01-13 16:05:00,77.2,63.3,30.20,SSW,201,4.7,5.2,62,0.00,,---,0.00,VWS V14.01,2013-01-13 21:05:00,
2013-01-13 16:06:00,77.1,63.3,30.20,South,186,7.7,7.7,62,0.00,,---,0.00,VWS V14.01,2013-01-13 21:06:00,
2013-01-13 16:09:00,77.2,63.0,30.20,South,170,4.5,8.6,62,0.00,,---,0.00,VWS V14.01,2013-01-13 21:09:00,
2013-01-13 16:10:00,77.2,63.1,30.20,SSW,197,6.0,8.4,62,0.00,,---,0.00,VWS V14.01,2013-01-13 21:10:00,
2013-01-13 16:11:00,77.2,63.2,30.20,South,186,7.8,8.6,62,0.00,,---,0.00,VWS V14.01,2013-01-13 21:11:00,
2013-01-13 16:14:00,77.3,63.5,30.20,South,186,4.0,6.0,62,0.00,,---,0.00,VWS V14.01,2013-01-13 21:14:00,
2013-01-13 16:15:00,77.3,63.3,30.20,South,170,4.5,4.5,62,0.00,,---,0.00,VWS V14.01,2013-01-13 21:15:00,
2013-01-13 16:16:00,77.4,63.5,30.20,South,183,3.7,4.0,62,0.00,,---,0.00,VWS V14.01,2013-01-13 21:16:00,
2013-01-13 16:19:00,77.2,63.1,30.21,South,181,3.3,6.0,62,0.00,,---,0.00,VWS V14.01,2013-01-13 21:19:00,
2013-01-13 16:20:00,77.2,63.2,30.21,SSE,165,2.5,6.0,62,0.00,,---,0.00,VWS V14.01,2013-01-13 21:20:00,
2013-01-13 16:21:00,77.3,63.5,30.21,SSE,155,2.8,3.0,62,0.00,,---,0.00,VWS V14.01,2013-01-13 21:21:00,
2013-01-13 16:24:00,77.1,63.2,30.21,South,184,4.3,5.5,62,0.00,,---,0.00,VWS V14.01,2013-01-13 21:24:00,
2013-01-13 16:25:00,77.2,63.4,30.21,SE,146,2.8,5.6,62,0.00,,---,0.00,VWS V14.01,2013-01-13 21:25:00,
2013-01-13 16:26:00,77.3,63.5,30.21,South,186,5.0,5.0,62,0.00,,---,0.00,VWS V14.01,2013-01-13 21:26:00,
2013-01-13 16:29:00,77.2,63.3,30.21,South,188,4.8,5.7,62,0.00,,---,0.00,VWS V14.01,2013-01-13 21:29:00,
2013-01-13 16:30:00,77.1,63.4,30.21,South,180,6.6,9.3,63,0.00,,---,0.00,VWS V14.01,2013-01-13 21:30:00,
2013-01-13 16:31:00,77.2,63.5,30.21,South,190,6.3,10.9,63,0.00,,---,0.00,VWS V14.01,2013-01-13 21:31:00,
2013-01-13 16:34:00,76.8,63.6,30.21,South,170,3.6,3.7,64,0.00,,---,0.00,VWS V14.01,2013-01-13 21:34:00,
2013-01-13 16:35:00,76.9,63.7,30.21,South,176,5.7,9.3,64,0.00,,---,0.00,VWS V14.01,2013-01-13 21:35:00,
2013-01-13 16:36:00,76.9,63.8,30.21,South,183,4.1,6.2,64,0.00,,---,0.00,VWS V14.01,2013-01-13 21:36:00,
2013-01-13 16:39:00,76.8,63.8,30.21,South,190,3.4,4.0,64,0.00,,---,0.00,VWS V14.01,2013-01-13 21:39:00,
2013-01-13 16:40:00,76.6,63.8,30.21,SSW,198,1.9,1.9,65,0.00,,---,0.00,VWS V14.01,2013-01-13 21:40:00,
2013-01-13 16:41:00,76.7,63.9,30.21,South,174,4.3,4.3,65,0.00,,---,0.00,VWS V14.01,2013-01-13 21:41:00,
2013-01-13 16:42:00,76.6,63.7,30.21,SSE,165,4.8,7.1,64,0.00,,---,0.00,VWS V14.01,2013-01-13 21:42:00,
2013-01-13 16:44:00,76.4,63.2,30.21,South,176,5.2,5.2,64,0.00,,---,0.00,VWS V14.01,2013-01-13 21:44:00,
2013-01-13 16:45:00,76.4,63.3,30.21,SSW,195,7.1,7.1,64,0.00,,---,0.00,VWS V14.01,2013-01-13 21:45:00,
2013-01-13 16:46:00,76.4,63.3,30.21,SSW,193,3.9,8.1,64,0.00,,---,0.00,VWS V14.01,2013-01-13 21:46:00,
2013-01-13 16:47:00,76.4,63.4,30.21,South,180,9.0,10.0,64,0.00,,---,0.00,VWS V14.01,2013-01-13 21:47:00,
2013-01-13 16:49:00,76.3,63.4,30.21,South,183,6.2,7.5,64,0.00,,---,0.00,VWS V14.01,2013-01-13 21:49:00,
2013-01-13 16:50:00,76.3,63.3,30.21,South,170,3.9,3.9,64,0.00,,---,0.00,VWS V14.01,2013-01-13 21:50:00,
2013-01-13 16:51:00,76.3,63.3,30.21,SSE,167,9.0,9.0,64,0.00,,---,0.00,VWS V14.01,2013-01-13 21:51:00,
2013-01-13 16:52:00,76.3,63.3,30.21,SSE,167,6.2,9.2,64,0.00,,---,0.00,VWS V14.01,2013-01-13 21:52:00,
2013-01-13 16:54:00,76.5,63.5,30.21,South,170,5.5,7.6,64,0.00,,---,0.00,VWS V14.01,2013-01-13 21:54:00,
2013-01-13 16:55:00,76.2,63.2,30.21,SSE,166,5.7,6.6,64,0.00,,---,0.00,VWS V14.01,2013-01-13 21:55:00,
2013-01-13 16:56:00,76.1,63.1,30.21,South,179,5.8,6.9,64,0.00,,---,0.00,VWS V14.01,2013-01-13 21:56:00,
2013-01-13 16:57:00,76.3,63.3,30.21,South,169,4.7,6.1,64,0.00,,---,0.00,VWS V14.01,2013-01-13 21:57:00,
2013-01-13 16:59:00,76.5,63.6,30.21,South,181,8.5,8.5,64,0.00,,---,0.00,VWS V14.01,2013-01-13 21:59:00,
2013-01-13 17:00:00,76.2,63.2,30.21,South,191,4.6,6.8,64,0.00,,---,0.00,VWS V14.01,2013-01-13 22:00:00,
2013-01-13 17:01:00,76.3,63.3,30.21,SSW,211,2.4,3.9,64,0.00,,---,0.00,VWS V14.01,2013-01-13 22:01:00,
2013-01-13 17:02:00,76.2,63.2,30.21,SSW,195,4.7,6.6,64,0.00,,---,0.00,VWS V14.01,2013-01-13 22:02:00,
2013-01-13 17:04:00,76.4,63.4,30.21,SSE,156,4.5,6.6,64,0.00,,---,0.00,VWS V14.01,2013-01-13 22:04:00,
2013-01-13 17:05:00,76.4,63.5,30.21,South,174,3.7,6.0,64,0.00,,---,0.00,VWS V14.01,2013-01-13 22:05:00,
2013-01-13 17:06:00,76.5,63.4,30.21,South,172,6.6,10.1,64,0.00,,---,0.00,VWS V14.01,2013-01-13 22:06:00,
2013-01-13 17:07:00,76.5,63.6,30.21,SSE,155,4.2,8.0,64,0.00,,---,0.00,VWS V14.01,2013-01-13 22:07:00,
2013-01-13 17:10:00,76.4,63.4,30.21,SSW,195,4.3,7.8,64,0.00,,---,0.00,VWS V14.01,2013-01-13 22:10:00,
2013-01-13 17:11:00,76.6,63.6,30.21,SW,218,3.4,7.1,64,0.00,,---,0.00,VWS V14.01,2013-01-13 22:11:00,
2013-01-13 17:12:00,76.5,63.7,30.21,SSW,198,3.9,5.5,64,0.00,,---,0.00,VWS V14.01,2013-01-13 22:12:00,
2013-01-13 17:15:00,76.4,63.7,30.21,SSW,201,8.3,9.4,65,0.00,,---,0.00,VWS V14.01,2013-01-13 22:15:00,
2013-01-13 17:16:00,76.4,63.9,30.21,SSW,198,3.7,4.4,65,0.00,,---,0.00,VWS V14.01,2013-01-13 22:16:00,
2013-01-13 17:17:00,76.5,64.1,30.21,South,180,4.2,4.2,65,0.00,,---,0.00,VWS V14.01,2013-01-13 22:17:00,
2013-01-13 17:20:00,76.3,64.1,30.21,South,186,7.6,12.6,66,0.00,,---,0.00,VWS V14.01,2013-01-13 22:20:00,
2013-01-13 17:22:00,76.1,64.0,30.21,South,180,6.7,9.2,66,0.00,,---,0.00,VWS V14.01,2013-01-13 22:22:00,
2013-01-13 17:23:00,76.0,63.8,30.21,South,180,7.6,9.9,66,0.00,,---,0.00,VWS V14.01,2013-01-13 22:23:00,
2013-01-13 17:25:00,76.0,64.0,30.21,South,191,8.1,9.5,66,0.00,,---,0.00,VWS V14.01,2013-01-13 22:25:00,
2013-01-13 17:27:00,75.9,64.0,30.20,SSW,204,5.0,7.8,67,0.00,,---,0.00,VWS V14.01,2013-01-13 22:27:00,
2013-01-13 17:28:00,75.9,64.1,30.20,SSW,194,8.9,9.0,67,0.00,,---,0.00,VWS V14.01,2013-01-13 22:28:00,
2013-01-13 17:30:00,75.8,64.2,30.20,South,188,6.8,8.5,67,0.00,,---,0.00,VWS V14.01,2013-01-13 22:30:00,
2013-01-13 17:31:00,75.8,64.2,30.21,South,177,7.0,8.5,67,0.00,,---,0.00,VWS V14.01,2013-01-13 22:31:00,
2013-01-13 17:32:00,75.5,64.0,30.21,South,180,4.1,8.6,68,0.00,,---,0.00,VWS V14.01,2013-01-13 22:32:00,
2013-01-13 17:33:00,75.6,64.1,30.21,SSW,210,6.7,10.9,68,0.00,,---,0.00,VWS V14.01,2013-01-13 22:33:00,
2013-01-13 17:35:00,75.3,64.0,30.21,SSW,193,8.5,9.6,68,0.00,,---,0.00,VWS V14.01,2013-01-13 22:35:00,
2013-01-13 17:36:00,75.5,64.2,30.21,SSE,166,5.5,6.9,68,0.00,,---,0.00,VWS V14.01,2013-01-13 22:36:00,
2013-01-13 17:37:00,75.4,64.1,30.21,SSW,207,5.3,6.9,68,0.00,,---,0.00,VWS V14.01,2013-01-13 22:37:00,
2013-01-13 17:38:00,75.6,64.0,30.21,SSE,163,6.2,6.2,67,0.00,,---,0.00,VWS V14.01,2013-01-13 22:38:00,
2013-01-13 17:41:00,75.3,63.0,30.21,South,172,6.3,10.2,66,0.00,,---,0.00,VWS V14.01,2013-01-13 22:41:00,
2013-01-13 17:42:00,75.3,63.0,30.21,SW,215,6.7,7.2,66,0.00,,---,0.00,VWS V14.01,2013-01-13 22:42:00,
2013-01-13 17:43:00,75.2,62.8,30.21,South,190,5.2,6.8,65,0.00,,---,0.00,VWS V14.01,2013-01-13 22:43:00,
2013-01-13 17:46:00,75.3,63.0,30.21,SE,138,1.9,4.5,66,0.00,,---,0.00,VWS V14.01,2013-01-13 22:46:00,
2013-01-13 17:47:00,75.2,62.8,30.21,South,179,7.9,7.9,65,0.00,,---,0.00,VWS V14.01,2013-01-13 22:47:00,
2013-01-13 17:48:00,75.2,62.7,30.21,SSE,158,5.7,8.5,65,0.00,,---,0.00,VWS V14.01,2013-01-13 22:48:00,
2013-01-13 17:51:00,75.1,62.6,30.22,SSE,166,4.8,5.4,65,0.00,,---,0.00,VWS V14.01,2013-01-13 22:51:00,
2013-01-13 17:52:00,75.3,62.8,30.22,SSW,205,4.7,9.4,65,0.00,,---,0.00,VWS V14.01,2013-01-13 22:52:00,
2013-01-13 17:53:00,75.2,62.7,30.22,SSE,165,3.6,3.6,65,0.00,,---,0.00,VWS V14.01,2013-01-13 22:53:00,
2013-01-13 17:56:00,75.0,62.7,30.22,SSW,202,5.9,7.6,66,0.00,,---,0.00,VWS V14.01,2013-01-13 22:56:00,
2013-01-13 17:57:00,75.2,62.9,30.22,SSE,162,3.5,5.6,66,0.00,,---,0.00,VWS V14.01,2013-01-13 22:57:00,
2013-01-13 17:58:00,75.2,63.0,30.22,SSE,156,4.1,4.3,66,0.00,,---,0.00,VWS V14.01,2013-01-13 22:58:00,
2013-01-13 18:01:00,75.2,62.9,30.22,South,173,6.7,10.2,66,0.00,,---,0.00,VWS V14.01,2013-01-13 23:01:00,
2013-01-13 18:02:00,75.1,62.8,30.22,South,177,5.4,7.2,66,0.00,,---,0.00,VWS V14.01,2013-01-13 23:02:00,
2013-01-13 18:03:00,75.1,62.8,30.22,SE,129,6.2,6.2,66,0.00,,---,0.00,VWS V14.01,2013-01-13 23:03:00,
2013-01-13 18:06:00,75.0,62.8,30.22,South,172,4.9,8.8,66,0.00,,---,0.00,VWS V14.01,2013-01-13 23:06:00,
2013-01-13 18:07:00,75.0,62.9,30.22,South,190,4.0,7.6,66,0.00,,---,0.00,VWS V14.01,2013-01-13 23:07:00,
2013-01-13 18:08:00,75.0,63.0,30.22,SSE,167,2.6,2.9,66,0.00,,---,0.00,VWS V14.01,2013-01-13 23:08:00,
2013-01-13 18:11:00,74.9,63.1,30.22,South,170,4.3,5.8,67,0.00,,---,0.00,VWS V14.01,2013-01-13 23:11:00,
2013-01-13 18:12:00,75.0,63.2,30.22,South,188,7.1,7.1,67,0.00,,---,0.00,VWS V14.01,2013-01-13 23:12:00,
2013-01-13 18:13:00,75.0,63.2,30.22,SSE,163,3.9,6.5,67,0.00,,---,0.00,VWS V14.01,2013-01-13 23:13:00,
2013-01-13 18:16:00,74.9,63.3,30.22,South,172,3.7,4.4,67,0.00,,---,0.00,VWS V14.01,2013-01-13 23:16:00,
2013-01-13 18:17:00,74.9,63.3,30.22,South,170,5.5,9.7,67,0.00,,---,0.00,VWS V14.01,2013-01-13 23:17:00,
2013-01-13 18:18:00,75.0,63.4,30.22,SSE,167,3.7,7.7,67,0.00,,---,0.00,VWS V14.01,2013-01-13 23:18:00,
2013-01-13 18:21:00,75.0,63.3,30.21,SSE,167,3.5,3.6,67,0.00,,---,0.00,VWS V14.01,2013-01-13 23:21:00,
2013-01-13 18:22:00,75.0,63.3,30.21,South,190,10.3,12.0,67,0.00,,---,0.00,VWS V14.01,2013-01-13 23:22:00,
2013-01-13 18:23:00,74.9,62.9,30.22,South,186,7.4,10.9,66,0.00,,---,0.00,VWS V14.01,2013-01-13 23:23:00,
2013-01-13 18:26:00,75.0,62.9,30.22,South,179,5.7,5.9,66,0.00,,---,0.00,VWS V14.01,2013-01-13 23:26:00,
2013-01-13 18:27:00,74.8,62.7,30.22,South,190,7.9,9.3,66,0.00,,---,0.00,VWS V14.01,2013-01-13 23:27:00,
2013-01-13 18:28:00,75.0,62.9,30.22,South,181,2.5,7.2,66,0.00,,---,0.00,VWS V14.01,2013-01-13 23:28:00,
2013-01-13 18:31:00,74.9,62.9,30.22,SE,141,3.4,4.1,66,0.00,,---,0.00,VWS V14.01,2013-01-13 23:31:00,
2013-01-13 18:32:00,74.9,63.0,30.22,SSE,148,6.3,6.3,66,0.00,,---,0.00,VWS V14.01,2013-01-13 23:32:00,
2013-01-13 18:33:00,74.9,63.1,30.22,SE,136,6.0,11.4,67,0.00,,---,0.00,VWS V14.01,2013-01-13 23:33:00,
2013-01-13 18:36:00,75.0,63.0,30.22,South,170,6.2,8.3,66,0.00,,---,0.00,VWS V14.01,2013-01-13 23:36:00,
2013-01-13 18:37:00,75.0,63.0,30.22,SSW,195,6.4,6.4,66,0.00,,---,0.00,VWS V14.01,2013-01-13 23:37:00,
2013-01-13 18:38:00,75.0,62.9,30.22,South,184,4.7,7.6,66,0.00,,---,0.00,VWS V14.01,2013-01-13 23:38:00,
2013-01-13 18:41:00,74.9,62.7,30.22,South,179,6.5,9.6,66,0.00,,---,0.00,VWS V14.01,2013-01-13 23:41:00,
2013-01-13 18:42:00,74.9,62.7,30.22,SSE,149,3.2,4.1,66,0.00,,---,0.00,VWS V14.01,2013-01-13 23:42:00,
2013-01-13 18:43:00,75.0,62.8,30.21,South,170,3.1,7.0,66,0.00,,---,0.00,VWS V14.01,2013-01-13 23:43:00,
2013-01-13 18:46:00,74.9,62.9,30.22,SSW,197,4.3,5.3,66,0.00,,---,0.00,VWS V14.01,2013-01-13 23:46:00,
2013-01-13 18:47:00,75.0,63.0,30.22,SE,146,3.7,5.0,66,0.00,,---,0.00,VWS V14.01,2013-01-13 23:47:00,
2013-01-13 18:48:00,75.0,62.9,30.22,SSE,160,8.5,8.5,66,0.00,,---,0.00,VWS V14.01,2013-01-13 23:48:00,
2013-01-13 18:51:00,74.9,63.0,30.22,South,169,7.6,7.6,66,0.00,,---,0.00,VWS V14.01,2013-01-13 23:51:00,
2013-01-13 18:52:00,74.8,63.0,30.22,SSW,193,6.2,8.1,67,0.00,,---,0.00,VWS V14.01,2013-01-13 23:52:00,
2013-01-13 18:53:00,74.8,63.0,30.22,SSE,163,9.0,9.9,67,0.00,,---,0.00,VWS V14.01,2013-01-13 23:53:00,
2013-01-13 18:56:00,74.9,62.6,30.22,SSW,193,7.1,10.7,66,0.00,,---,0.00,VWS V14.01,2013-01-13 23:56:00,
2013-01-13 18:57:00,74.9,62.6,30.22,South,186,10.3,10.3,66,0.00,,---,0.00,VWS V14.01,2013-01-13 23:57:00,
2013-01-13 18:58:00,74.9,62.5,30.22,South,177,6.8,8.3,65,0.00,,---,0.00,VWS V14.01,2013-01-13 23:58:00,
2013-01-13 18:59:00,74.9,62.5,30.22,South,172,6.4,9.6,65,0.00,,---,0.00,VWS V14.01,2013-01-13 23:59:00,
2013-01-13 19:02:00,74.8,62.7,30.22,SSE,152,4.7,6.8,66,0.00,,---,0.00,VWS V14.01,2013-01-14 00:02:00,
2013-01-13 19:03:00,74.7,62.6,30.22,SE,138,3.9,5.6,66,0.00,,---,0.00,VWS V14.01,2013-01-14 00:03:00,
2013-01-13 19:04:00,74.8,62.7,30.22,ESE,107,3.2,6.9,66,0.00,,---,0.00,VWS V14.01,2013-01-14 00:04:00,
2013-01-13 19:07:00,74.9,62.7,30.22,South,177,4.8,7.4,66,0.00,,---,0.00,VWS V14.01,2013-01-14 00:07:00,
2013-01-13 19:08:00,74.8,62.7,30.22,SSE,165,3.3,8.3,66,0.00,,---,0.00,VWS V14.01,2013-01-14 00:08:00,
2013-01-13 19:09:00,74.8,62.7,30.22,SSE,167,4.5,9.4,66,0.00,,---,0.00,VWS V14.01,2013-01-14 00:09:00,
2013-01-13 19:12:00,74.8,62.6,30.22,SSE,165,4.8,9.9,66,0.00,,---,0.00,VWS V14.01,2013-01-14 00:12:00,
2013-01-13 19:13:00,74.8,62.3,30.22,East,100,6.6,9.4,65,0.00,,---,0.00,VWS V14.01,2013-01-14 00:13:00,
2013-01-13 19:14:00,74.7,62.2,30.22,South,180,6.0,8.0,65,0.00,,---,0.00,VWS V14.01,2013-01-14 00:14:00,
2013-01-13 19:17:00,74.7,62.2,30.22,SSW,195,3.9,10.7,65,0.00,,---,0.00,VWS V14.01,2013-01-14 00:17:00,
2013-01-13 19:18:00,74.7,62.2,30.22,South,174,4.8,6.8,65,0.00,,---,0.00,VWS V14.01,2013-01-14 00:18:00,
2013-01-13 19:19:00,74.8,62.3,30.22,South,176,6.3,8.2,65,0.00,,---,0.00,VWS V14.01,2013-01-14 00:19:00,
2013-01-13 19:22:00,75.0,62.5,30.22,South,180,4.6,4.8,65,0.00,,---,0.00,VWS V14.01,2013-01-14 00:22:00,
2013-01-13 19:23:00,74.8,62.2,30.22,South,174,8.3,10.8,65,0.00,,---,0.00,VWS V14.01,2013-01-14 00:23:00,
2013-01-13 19:24:00,74.9,62.3,30.22,South,179,6.0,10.8,65,0.00,,---,0.00,VWS V14.01,2013-01-14 00:24:00,
2013-01-13 19:27:00,74.9,62.3,30.22,South,173,5.0,5.0,65,0.00,,---,0.00,VWS V14.01,2013-01-14 00:27:00,
2013-01-13 19:28:00,74.8,62.2,30.22,SSE,153,9.6,10.4,65,0.00,,---,0.00,VWS V14.01,2013-01-14 00:28:00,
2013-01-13 19:29:00,74.7,62.0,30.22,SSE,149,5.0,11.6,64,0.00,,---,0.00,VWS V14.01,2013-01-14 00:29:00,
2013-01-13 19:32:00,74.9,62.1,30.22,South,169,5.5,11.7,64,0.00,,---,0.00,VWS V14.01,2013-01-14 00:32:00,
2013-01-13 19:33:00,75.0,62.2,30.22,South,183,4.5,8.8,64,0.00,,---,0.00,VWS V14.01,2013-01-14 00:33:00,
2013-01-13 19:34:00,74.9,62.1,30.22,South,179,9.8,9.8,64,0.00,,---,0.00,VWS V14.01,2013-01-14 00:34:00,
2013-01-13 19:37:00,74.9,62.1,30.22,SSE,166,3.3,6.9,64,0.00,,---,0.00,VWS V14.01,2013-01-14 00:37:00,
2013-01-13 19:38:00,74.9,62.2,30.22,ESE,117,4.2,5.3,65,0.00,,---,0.00,VWS V14.01,2013-01-14 00:38:00,
2013-01-13 19:39:00,74.9,62.3,30.22,SSE,162,5.8,7.7,65,0.00,,---,0.00,VWS V14.01,2013-01-14 00:39:00,
2013-01-13 19:42:00,75.0,62.6,30.22,SSE,165,4.2,8.4,65,0.00,,---,0.00,VWS V14.01,2013-01-14 00:42:00,
2013-01-13 19:43:00,75.0,62.6,30.22,South,183,6.7,9.2,65,0.00,,---,0.00,VWS V14.01,2013-01-14 00:43:00,
2013-01-13 19:44:00,75.0,62.6,30.22,South,169,4.7,8.0,65,0.00,,---,0.00,VWS V14.01,2013-01-14 00:44:00,
2013-01-13 19:47:00,75.1,62.8,30.22,SSE,150,5.0,5.5,66,0.00,,---,0.00,VWS V14.01,2013-01-14 00:47:00,
2013-01-13 19:49:00,75.1,62.9,30.22,SSE,149,3.9,9.1,66,0.00,,---,0.00,VWS V14.01,2013-01-14 00:49:00,
2013-01-13 19:52:00,75.1,62.6,30.22,SSE,165,4.2,7.6,65,0.00,,---,0.00,VWS V14.01,2013-01-14 00:52:00,
2013-01-13 19:54:00,75.1,62.6,30.22,South,188,7.8,8.2,65,0.00,,---,0.00,VWS V14.01,2013-01-14 00:54:00,
2013-01-13 19:57:00,75.0,62.3,30.22,SE,125,8.7,9.1,65,0.00,,---,0.00,VWS V14.01,2013-01-14 00:57:00,
2013-01-13 19:59:00,75.1,62.1,30.22,SSW,194,5.2,8.3,64,0.00,,---,0.00,VWS V14.01,2013-01-14 00:59:00,
2013-01-13 20:03:00,75.2,62.0,30.21,SSE,165,8.1,9.7,64,0.00,,---,0.00,VWS V14.01,2013-01-14 01:03:00,
2013-01-13 20:04:00,75.0,61.7,30.21,SSE,153,7.1,9.0,63,0.00,,---,0.00,VWS V14.01,2013-01-14 01:04:00,
2013-01-13 20:08:00,75.1,62.2,30.21,SSE,165,4.9,8.1,64,0.00,,---,0.00,VWS V14.01,2013-01-14 01:08:00,
2013-01-13 20:09:00,75.2,62.4,30.21,South,170,9.9,9.9,64,0.00,,---,0.00,VWS V14.01,2013-01-14 01:09:00,
2013-01-13 20:10:00,75.1,62.3,30.21,South,173,4.2,8.6,64,0.00,,---,0.00,VWS V14.01,2013-01-14 01:10:00,
2013-01-13 20:13:00,75.1,62.2,30.21,South,183,6.9,11.2,64,0.00,,---,0.00,VWS V14.01,2013-01-14 01:13:00,
2013-01-13 20:14:00,75.1,61.9,30.21,SSE,162,6.3,10.3,64,0.00,,---,0.00,VWS V14.01,2013-01-14 01:14:00,
2013-01-13 20:15:00,75.0,61.8,30.21,South,169,7.1,10.1,64,0.00,,---,0.00,VWS V14.01,2013-01-14 01:15:00,
2013-01-13 20:18:00,74.9,61.9,30.21,South,170,8.2,9.1,64,0.00,,---,0.00,VWS V14.01,2013-01-14 01:18:00,
2013-01-13 20:19:00,74.9,61.9,30.21,SSE,153,7.1,11.0,64,0.00,,---,0.00,VWS V14.01,2013-01-14 01:19:00,
2013-01-13 20:20:00,75.0,61.8,30.21,SSE,167,11.0,12.2,64,0.00,,---,0.00,VWS V14.01,2013-01-14 01:20:00,
2013-01-13 20:23:00,74.9,61.8,30.21,SSE,166,7.7,9.5,64,0.00,,---,0.00,VWS V14.01,2013-01-14 01:23:00,
2013-01-13 20:24:00,74.9,61.8,30.21,South,181,7.8,7.8,64,0.00,,---,0.00,VWS V14.01,2013-01-14 01:24:00,
2013-01-13 20:25:00,74.8,61.7,30.21,SSE,163,4.5,7.9,64,0.00,,---,0.00,VWS V14.01,2013-01-14 01:25:00,
2013-01-13 20:28:00,74.7,61.5,30.21,South,180,6.1,8.0,64,0.00,,---,0.00,VWS V14.01,2013-01-14 01:28:00,
2013-01-13 20:29:00,74.9,61.8,30.21,South,174,6.9,6.9,64,0.00,,---,0.00,VWS V14.01,2013-01-14 01:29:00,
2013-01-13 20:30:00,74.9,61.9,30.21,South,186,7.7,10.5,64,0.00,,---,0.00,VWS V14.01,2013-01-14 01:30:00,
2013-01-13 20:33:00,74.7,61.7,30.21,SSE,163,8.1,12.7,64,0.00,,---,0.00,VWS V14.01,2013-01-14 01:33:00,
2013-01-13 20:34:00,74.7,61.7,30.21,SSE,148,6.6,10.5,64,0.00,,---,0.00,VWS V14.01,2013-01-14 01:34:00,
2013-01-13 20:35:00,74.7,61.5,30.21,SSW,201,8.3,10.5,64,0.00,,---,0.00,VWS V14.01,2013-01-14 01:35:00,
2013-01-13 20:38:00,74.7,61.4,30.20,South,180,9.8,9.8,63,0.00,,---,0.00,VWS V14.01,2013-01-14 01:38:00,
2013-01-13 20:39:00,74.6,61.2,30.20,South,176,5.8,7.6,63,0.00,,---,0.00,VWS V14.01,2013-01-14 01:39:00,
2013-01-13 20:40:00,74.8,61.4,30.20,SSW,204,7.1,8.1,63,0.00,,---,0.00,VWS V14.01,2013-01-14 01:40:00,
2013-01-13 20:43:00,74.7,61.4,30.20,South,183,5.2,5.8,63,0.00,,---,0.00,VWS V14.01,2013-01-14 01:43:00,
2013-01-13 20:44:00,74.4,61.1,30.20,SSE,149,7.1,10.4,63,0.00,,---,0.00,VWS V14.01,2013-01-14 01:44:00,
2013-01-13 20:46:00,74.5,61.4,30.20,South,186,5.7,8.1,64,0.00,,---,0.00,VWS V14.01,2013-01-14 01:46:00,
2013-01-13 20:48:00,74.6,61.7,30.20,South,173,12.9,12.9,64,0.00,,---,0.00,VWS V14.01,2013-01-14 01:48:00,
2013-01-13 20:49:00,74.5,61.5,30.20,South,181,5.8,8.7,64,0.00,,---,0.00,VWS V14.01,2013-01-14 01:49:00,
2013-01-13 20:51:00,74.5,61.5,30.20,SSW,201,8.4,8.4,64,0.00,,---,0.00,VWS V14.01,2013-01-14 01:51:00,
2013-01-13 20:53:00,74.6,61.7,30.20,South,169,4.3,7.6,64,0.00,,---,0.00,VWS V14.01,2013-01-14 01:53:00,
2013-01-13 20:54:00,74.6,61.8,30.20,SSE,156,3.5,4.0,64,0.00,,---,0.00,VWS V14.01,2013-01-14 01:54:00,
2013-01-13 20:56:00,74.4,61.7,30.20,South,184,6.0,8.3,65,0.00,,---,0.00,VWS V14.01,2013-01-14 01:56:00,
2013-01-13 20:58:00,74.5,61.8,30.20,SE,125,3.0,5.0,65,0.00,,---,0.00,VWS V14.01,2013-01-14 01:58:00,
2013-01-13 21:00:00,74.4,61.7,30.20,SSE,158,5.4,11.2,65,0.00,,---,0.00,VWS V14.01,2013-01-14 02:00:00,
2013-01-13 21:01:00,74.3,61.6,30.20,South,170,8.9,9.7,65,0.00,,---,0.00,VWS V14.01,2013-01-14 02:01:00,
2013-01-13 21:03:00,74.3,61.4,30.20,South,184,6.7,11.4,64,0.00,,---,0.00,VWS V14.01,2013-01-14 02:03:00,
2013-01-13 21:05:00,74.4,61.5,30.20,South,183,8.3,8.9,64,0.00,,---,0.00,VWS V14.01,2013-01-14 02:05:00,
2013-01-13 21:06:00,74.2,61.4,30.20,SSE,152,3.2,6.6,64,0.00,,---,0.00,VWS V14.01,2013-01-14 02:06:00,
2013-01-13 21:09:00,74.4,61.6,30.20,SSE,167,8.4,8.4,64,0.00,,---,0.00,VWS V14.01,2013-01-14 02:09:00,
2013-01-13 21:10:00,74.2,61.2,30.20,South,181,8.5,10.3,64,0.00,,---,0.00,VWS V14.01,2013-01-14 02:10:00,
2013-01-13 21:11:00,74.1,60.9,30.20,SE,131,5.7,7.5,64,0.00,,---,0.00,VWS V14.01,2013-01-14 02:11:00,
2013-01-13 21:14:00,74.0,60.9,30.20,South,177,7.0,10.8,64,0.00,,---,0.00,VWS V14.01,2013-01-14 02:14:00,
2013-01-13 21:15:00,74.1,61.0,30.20,South,184,8.1,8.1,64,0.00,,---,0.00,VWS V14.01,2013-01-14 02:15:00,
2013-01-13 21:16:00,74.3,61.3,30.20,South,170,4.5,4.5,64,0.00,,---,0.00,VWS V14.01,2013-01-14 02:16:00,
2013-01-13 21:19:00,74.0,60.4,30.20,SSE,159,6.6,11.1,63,0.00,,---,0.00,VWS V14.01,2013-01-14 02:19:00,
2013-01-13 21:20:00,74.1,60.6,30.20,South,183,6.2,7.5,63,0.00,,---,0.00,VWS V14.01,2013-01-14 02:20:00,
2013-01-13 21:21:00,74.2,60.6,30.20,SE,139,5.0,5.2,62,0.00,,---,0.00,VWS V14.01,2013-01-14 02:21:00,
2013-01-13 21:22:00,74.1,60.5,30.20,SE,125,3.4,5.2,63,0.00,,---,0.00,VWS V14.01,2013-01-14 02:22:00,
2013-01-13 21:24:00,74.2,60.5,30.20,South,177,8.7,13.5,62,0.00,,---,0.00,VWS V14.01,2013-01-14 02:24:00,
2013-01-13 21:25:00,74.1,60.3,30.20,South,184,6.6,6.6,62,0.00,,---,0.00,VWS V14.01,2013-01-14 02:25:00,
2013-01-13 21:26:00,74.3,60.4,30.20,South,181,9.4,11.4,62,0.00,,---,0.00,VWS V14.01,2013-01-14 02:26:00,
2013-01-13 21:27:00,74.0,60.1,30.20,South,172,5.1,11.4,62,0.00,,---,0.00,VWS V14.01,2013-01-14 02:27:00,
2013-01-13 21:29:00,74.2,60.4,30.20,South,186,4.7,10.0,62,0.00,,---,0.00,VWS V14.01,2013-01-14 02:29:00,
2013-01-13 21:30:00,74.1,60.3,30.20,South,172,8.3,11.1,62,0.00,,---,0.00,VWS V14.01,2013-01-14 02:30:00,
2013-01-13 21:31:00,74.1,60.4,30.20,SSE,167,8.8,8.8,62,0.00,,---,0.00,VWS V14.01,2013-01-14 02:31:00,
2013-01-13 21:33:00,74.2,60.6,30.20,South,188,6.8,10.7,63,0.00,,---,0.00,VWS V14.01,2013-01-14 02:33:00,
2013-01-13 21:35:00,74.1,60.3,30.20,South,177,4.6,9.6,62,0.00,,---,0.00,VWS V14.01,2013-01-14 02:35:00,
2013-01-13 21:36:00,74.4,60.5,30.20,South,186,7.7,7.8,62,0.00,,---,0.00,VWS V14.01,2013-01-14 02:36:00,
2013-01-13 21:38:00,74.1,60.0,30.20,SSW,198,4.7,9.2,62,0.00,,---,0.00,VWS V14.01,2013-01-14 02:38:00,
2013-01-13 21:40:00,74.3,60.0,30.20,South,191,8.9,12.9,61,0.00,,---,0.00,VWS V14.01,2013-01-14 02:40:00,
2013-01-13 21:41:00,74.1,59.7,30.19,South,177,8.6,11.5,61,0.00,,---,0.00,VWS V14.01,2013-01-14 02:41:00,
2013-01-13 21:43:00,74.1,59.8,30.19,South,176,10.9,11.2,61,0.00,,---,0.00,VWS V14.01,2013-01-14 02:43:00,
2013-01-13 21:45:00,74.3,60.0,30.19,South,180,6.0,10.6,61,0.00,,---,0.00,VWS V14.01,2013-01-14 02:45:00,
2013-01-13 21:46:00,74.3,60.0,30.19,SSW,205,6.0,8.0,61,0.00,,---,0.00,VWS V14.01,2013-01-14 02:46:00,
2013-01-13 21:48:00,74.3,59.9,30.19,South,186,6.6,8.9,61,0.00,,---,0.00,VWS V14.01,2013-01-14 02:48:00,
2013-01-13 21:50:00,74.3,59.7,30.20,SSW,193,7.9,9.8,60,0.00,,---,0.00,VWS V14.01,2013-01-14 02:50:00,
2013-01-13 21:51:00,74.3,59.8,30.20,SSE,159,7.3,11.1,60,0.00,,---,0.00,VWS V14.01,2013-01-14 02:51:00,
2013-01-13 21:53:00,74.4,59.8,30.20,South,176,6.0,6.0,60,0.00,,---,0.00,VWS V14.01,2013-01-14 02:53:00,
2013-01-13 21:55:00,74.2,59.5,30.20,South,169,12.2,12.2,60,0.00,,---,0.00,VWS V14.01,2013-01-14 02:55:00,
2013-01-13 21:56:00,74.4,59.6,30.20,SSW,194,4.2,12.2,60,0.00,,---,0.00,VWS V14.01,2013-01-14 02:56:00,
2013-01-13 21:58:00,74.4,59.9,30.20,SSE,155,6.8,7.9,60,0.00,,---,0.00,VWS V14.01,2013-01-14 02:58:00,
2013-01-13 22:00:00,74.3,60.0,30.20,South,191,10.6,13.4,61,0.00,,---,0.00,VWS V14.01,2013-01-14 03:00:00,
2013-01-13 22:01:00,74.4,60.1,30.20,SE,136,6.2,6.2,61,0.00,,---,0.00,VWS V14.01,2013-01-14 03:01:00,
2013-01-13 22:04:00,74.4,60.4,30.20,SSE,167,8.8,10.4,62,0.00,,---,0.00,VWS V14.01,2013-01-14 03:04:00,
2013-01-13 22:05:00,74.2,60.4,30.20,South,177,5.4,7.5,62,0.00,,---,0.00,VWS V14.01,2013-01-14 03:05:00,
2013-01-13 22:06:00,74.2,60.4,30.20,ESE,108,6.5,8.2,62,0.00,,---,0.00,VWS V14.01,2013-01-14 03:06:00,
2013-01-13 22:09:00,74.4,60.5,30.20,SSE,155,5.5,12.4,62,0.00,,---,0.00,VWS V14.01,2013-01-14 03:09:00,
2013-01-13 22:10:00,74.4,60.6,30.20,South,188,6.2,8.2,62,0.00,,---,0.00,VWS V14.01,2013-01-14 03:10:00,
2013-01-13 22:11:00,74.2,60.6,30.20,SE,131,5.3,8.7,63,0.00,,---,0.00,VWS V14.01,2013-01-14 03:11:00,
2013-01-13 22:14:00,74.3,61.0,30.20,SSE,149,5.8,8.3,63,0.00,,---,0.00,VWS V14.01,2013-01-14 03:14:00,
2013-01-13 22:15:00,74.3,61.1,30.20,SSW,197,7.1,7.5,63,0.00,,---,0.00,VWS V14.01,2013-01-14 03:15:00,
2013-01-13 22:16:00,74.1,61.2,30.20,SE,138,6.0,8.8,64,0.00,,---,0.00,VWS V14.01,2013-01-14 03:16:00,
2013-01-13 22:17:00,74.2,61.2,30.20,South,172,3.9,8.8,64,0.00,,---,0.00,VWS V14.01,2013-01-14 03:17:00,
2013-01-13 22:19:00,74.2,61.3,30.20,South,180,5.8,10.3,64,0.00,,---,0.00,VWS V14.01,2013-01-14 03:19:00,
2013-01-13 22:21:00,74.1,61.2,30.20,South,174,6.7,9.7,64,0.00,,---,0.00,VWS V14.01,2013-01-14 03:21:00,
2013-01-13 22:22:00,74.0,61.3,30.21,SSE,160,8.6,10.3,65,0.00,,---,0.00,VWS V14.01,2013-01-14 03:22:00,
2013-01-13 22:24:00,73.9,61.5,30.21,South,177,6.5,6.6,65,0.00,,---,0.00,VWS V14.01,2013-01-14 03:24:00,
2013-01-13 22:26:00,74.2,61.8,30.21,SSW,193,9.6,9.6,65,0.00,,---,0.00,VWS V14.01,2013-01-14 03:26:00,
2013-01-13 22:27:00,74.1,61.8,30.21,South,180,4.9,4.9,65,0.00,,---,0.00,VWS V14.01,2013-01-14 03:27:00,
2013-01-13 22:30:00,74.2,61.7,30.20,South,179,5.1,8.9,65,0.00,,---,0.00,VWS V14.01,2013-01-14 03:30:00,
2013-01-13 22:31:00,74.1,61.9,30.20,SSW,205,4.5,9.1,66,0.00,,---,0.00,VWS V14.01,2013-01-14 03:31:00,
2013-01-13 22:32:00,74.1,61.9,30.21,South,184,9.4,9.4,66,0.00,,---,0.00,VWS V14.01,2013-01-14 03:32:00,
2013-01-13 22:35:00,74.0,61.5,30.21,SSE,162,5.3,7.0,65,0.00,,---,0.00,VWS V14.01,2013-01-14 03:35:00,
2013-01-13 22:36:00,73.9,61.4,30.21,South,177,5.4,10.7,65,0.00,,---,0.00,VWS V14.01,2013-01-14 03:36:00,
2013-01-13 22:37:00,74.0,61.3,30.21,SSW,193,5.7,8.2,65,0.00,,---,0.00,VWS V14.01,2013-01-14 03:37:00,
2013-01-13 22:40:00,73.8,61.1,30.21,SSE,167,4.3,11.1,65,0.00,,---,0.00,VWS V14.01,2013-01-14 03:40:00,
2013-01-13 22:41:00,73.9,61.2,30.21,SSE,149,8.5,9.2,65,0.00,,---,0.00,VWS V14.01,2013-01-14 03:41:00,
2013-01-13 22:42:00,74.0,61.4,30.21,South,184,7.6,9.3,65,0.00,,---,0.00,VWS V14.01,2013-01-14 03:42:00,
2013-01-13 22:43:00,73.9,61.4,30.21,South,179,8.5,10.3,65,0.00,,---,0.00,VWS V14.01,2013-01-14 03:43:00,
2013-01-13 22:45:00,73.9,61.5,30.21,SSE,158,2.9,8.0,65,0.00,,---,0.00,VWS V14.01,2013-01-14 03:45:00,
2013-01-13 22:47:00,73.8,61.4,30.21,SSE,166,4.4,7.6,65,0.00,,---,0.00,VWS V14.01,2013-01-14 03:47:00,
2013-01-13 22:48:00,73.8,61.4,30.21,South,174,6.8,8.9,65,0.00,,---,0.00,VWS V14.01,2013-01-14 03:48:00,
2013-01-13 22:50:00,74.0,61.4,30.21,South,183,8.4,8.8,65,0.00,,---,0.00,VWS V14.01,2013-01-14 03:50:00,
2013-01-13 22:52:00,74.0,61.3,30.21,South,187,6.5,9.7,65,0.00,,---,0.00,VWS V14.01,2013-01-14 03:52:00,
2013-01-13 22:53:00,73.8,61.0,30.21,SSW,194,4.5,8.9,64,0.00,,---,0.00,VWS V14.01,2013-01-14 03:53:00,
2013-01-13 22:55:00,73.9,61.0,30.22,SSE,159,7.1,9.6,64,0.00,,---,0.00,VWS V14.01,2013-01-14 03:55:00,
2013-01-13 22:57:00,73.8,60.9,30.21,SSW,210,3.7,8.9,64,0.00,,---,0.00,VWS V14.01,2013-01-14 03:57:00,
2013-01-13 22:58:00,73.9,61.0,30.21,SSE,158,6.1,10.1,64,0.00,,---,0.00,VWS V14.01,2013-01-14 03:58:00,
2013-01-13 23:01:00,73.8,61.1,30.21,South,184,8.1,8.5,64,0.00,,---,0.00,VWS V14.01,2013-01-14 04:01:00,
2013-01-13 23:02:00,73.7,60.9,30.20,SSW,202,6.6,10.3,64,0.00,,---,0.00,VWS V14.01,2013-01-14 04:02:00,
2013-01-13 23:03:00,73.9,61.1,30.20,South,187,5.3,10.4,64,0.00,,---,0.00,VWS V14.01,2013-01-14 04:03:00,
2013-01-13 23:06:00,73.8,60.9,30.20,South,190,8.6,8.9,64,0.00,,---,0.00,VWS V14.01,2013-01-14 04:06:00,
2013-01-13 23:07:00,73.7,60.8,30.20,South,173,8.9,12.2,64,0.00,,---,0.00,VWS V14.01,2013-01-14 04:07:00,
2013-01-13 23:08:00,73.8,61.0,30.20,South,179,7.5,8.5,64,0.00,,---,0.00,VWS V14.01,2013-01-14 04:08:00,
2013-01-13 23:11:00,73.9,61.2,30.21,South,170,7.6,10.9,65,0.00,,---,0.00,VWS V14.01,2013-01-14 04:11:00,
2013-01-13 23:12:00,74.1,61.5,30.21,SSE,155,3.5,4.2,65,0.00,,---,0.00,VWS V14.01,2013-01-14 04:12:00,
2013-01-13 23:13:00,73.9,61.3,30.21,South,187,6.3,6.6,65,0.00,,---,0.00,VWS V14.01,2013-01-14 04:13:00,
2013-01-13 23:16:00,73.8,61.0,30.20,SSE,160,5.8,11.6,64,0.00,,---,0.00,VWS V14.01,2013-01-14 04:16:00,
2013-01-13 23:17:00,73.9,61.1,30.20,SSE,153,4.5,4.5,64,0.00,,---,0.00,VWS V14.01,2013-01-14 04:17:00,
2013-01-13 23:18:00,73.9,61.1,30.20,SSW,193,5.4,10.3,64,0.00,,---,0.00,VWS V14.01,2013-01-14 04:18:00,
2013-01-13 23:21:00,73.7,60.9,30.20,South,169,7.4,10.4,64,0.00,,---,0.00,VWS V14.01,2013-01-14 04:21:00,
2013-01-13 23:22:00,73.8,61.0,30.20,South,183,6.9,6.9,64,0.00,,---,0.00,VWS V14.01,2013-01-14 04:22:00,
2013-01-13 23:23:00,73.6,60.6,30.20,South,184,7.4,8.2,64,0.00,,---,0.00,VWS V14.01,2013-01-14 04:23:00,
2013-01-13 23:26:00,73.7,60.7,30.21,SSE,162,6.6,7.7,64,0.00,,---,0.00,VWS V14.01,2013-01-14 04:26:00,
2013-01-13 23:27:00,73.8,60.8,30.21,South,188,3.5,3.5,64,0.00,,---,0.00,VWS V14.01,2013-01-14 04:27:00,
2013-01-13 23:28:00,73.8,60.8,30.21,SSE,148,1.6,5.3,64,0.00,,---,0.00,VWS V14.01,2013-01-14 04:28:00,
2013-01-13 23:31:00,73.8,61.0,30.21,South,170,5.5,8.1,64,0.00,,---,0.00,VWS V14.01,2013-01-14 04:31:00,
2013-01-13 23:32:00,73.7,60.8,30.21,SSE,165,7.1,7.7,64,0.00,,---,0.00,VWS V14.01,2013-01-14 04:32:00,
2013-01-13 23:33:00,73.7,60.7,30.21,South,169,3.7,9.8,64,0.00,,---,0.00,VWS V14.01,2013-01-14 04:33:00,
2013-01-13 23:36:00,73.5,60.5,30.21,SSW,197,6.8,7.6,64,0.00,,---,0.00,VWS V14.01,2013-01-14 04:36:00,
2013-01-13 23:37:00,73.6,60.6,30.21,South,173,2.1,4.7,64,0.00,,---,0.00,VWS V14.01,2013-01-14 04:37:00,
2013-01-13 23:38:00,73.7,60.8,30.21,SSE,158,1.5,1.5,64,0.00,,---,0.00,VWS V14.01,2013-01-14 04:38:00,
2013-01-13 23:41:00,73.7,60.9,30.22,South,174,3.5,8.0,64,0.00,,---,0.00,VWS V14.01,2013-01-14 04:41:00,
2013-01-13 23:42:00,73.8,61.0,30.22,SE,129,2.8,4.6,64,0.00,,---,0.00,VWS V14.01,2013-01-14 04:42:00,
2013-01-13 23:43:00,74.0,61.3,30.22,South,172,9.6,9.6,64,0.00,,---,0.00,VWS V14.01,2013-01-14 04:43:00,
2013-01-13 23:47:00,73.9,61.4,30.22,SSE,158,1.2,4.3,65,0.00,,---,0.00,VWS V14.01,2013-01-14 04:47:00,
2013-01-13 23:59:00,73.9,62.2,30.22,South,184,5.8,10.6,67,0.00,,---,0.00,VWS V14.01,2013-01-14 04:59:00,